GFSGL_925_temp_066.txt.gz
Temp
12 12 12 12 12 12 12 13 13 13 13 13 14 15 15 15 16 15 15 15 15 16 16 16 16 16 16 16 16 15 14 13 13 14 15 15 15 16 16 16 15 15 14
13 12 12 13 13 12 12 12 13 12 13 13 13 14 14 15 15 15 14 14 14 14 14 14 15 14 14 14 14 14 13 14 13 13 14 14 14 15 15 15 15 14 14
13 12 12 12 12 13 13 12 13 13 12 13 13 13 13 13 13 14 14 14 14 14 14 14 14 14 14 13 13 13 13 13 13 12 13 14 13 14 13 13 13 13 13
14 13 12 12 13 13 13 13 13 13 12 12 12 12 12 13 13 13 13 13 13 14 14 14 14 13 13 13 13 13 13 13 12 12 12 13 12 12 11 11 9 11 11
15 13 13 12 12 12 12 13 13 13 13 13 13 12 12 12 12 13 13 13 13 13 13 13 13 13 14 14 13 13 12 12 12 12 12 13 11 8 9 10 8 9 8
10 10 13 13 13 13 12 12 12 13 13 13 13 13 12 12 12 13 13 13 13 13 13 13 13 13 13 13 14 14 14 13 12 13 13 13 13 9 9 9 8 5 4
7 7 7 9 10 12 12 12 12 12 13 13 13 13 13 13 13 13 13 13 13 13 13 13 13 13 13 13 13 13 13 13 13 12 13 13 12 12 9 7 6 4 2
4 5 5 6 8 7 8 10 13 13 12 13 13 12 13 13 13 13 13 13 13 13 13 13 13 13 13 13 12 12 11 9 9 9 9 9 8 7 6 4 3 1 -1
3 3 4 4 4 4 5 6 7 9 12 13 13 13 12 13 13 13 14 13 12 13 13 13 14 13 13 12 12 9 5 3 1 2 2 1 1 2 3 3 -0 -0 -2
2 2 2 1 1 2 2 3 5 5 6 11 14 13 14 13 13 14 14 13 12 12 12 11 12 12 12 12 12 7 -0 -3 -3 -2 -2 -1 -1 -1 -0 0 -0 -2 -3
0 -0 -1 -1 -1 -0 -1 1 2 3 4 7 10 8 7 7 9 10 12 13 11 10 7 4 4 5 7 6 5 1 -1 -3 -4 -4 -5 -5 -4 -4 -4 -4 -4 -3 -4
-1 -2 -3 -3 -3 -3 -2 -2 -0 1 1 1 -0 -2 -2 -2 -1 2 6 7 6 3 -1 -1 -2 -2 -3 -3 -2 -3 -4 -4 -5 -5 -6 -6 -6 -6 -6 -6 -6 -6 -6
-3 -4 -4 -4 -4 -4 -4 -3 -2 -1 -1 -2 -2 -3 -4 -4 -4 -3 -3 -2 -2 -2 -3 -4 -5 -5 -5 -5 -5 -5 -5 -5 -6 -6 -7 -7 -7 -7 -7 -8 -8 -8 -8
-4 -5 -5 -5 -5 -5 -4 -4 -4 -3 -3 -3 -3 -4 -5 -5 -5 -5 -5 -5 -6 -5 -5 -6 -5 -6 -7 -5 -5 -5 -5 -7 -8 -8 -8 -8 -9 -9 -9 -9 -10 -9 -9
-5 -5 -5 -6 -5 -5 -6 -5 -4 -4 -4 -4 -4 -4 -4 -4 -5 -5 -5 -5 -6 -6 -6 -7 -7 -8 -8 -9 -9 -9 -9 -9 -9 -9 -10 -10 -10 -11 -11 -11 -11 -11 -11
-6 -6 -7 -7 -7 -6 -6 -6 -7 -6 -6 -5 -5 -5 -5 -5 -5 -5 -6 -6 -6 -7 -7 -8 -8 -9 -9 -10 -10 -10 -11 -11 -11 -11 -11 -11 -12 -12 -12 -12 -12 -12 -13
-6 -7 -7 -7 -7 -7 -7 -7 -7 -7 -8 -8 -7 -7 -7 -7 -7 -7 -8 -7 -8 -8 -9 -10 -10 -10 -10 -10 -11 -11 -12 -12 -12 -12 -13 -13 -13 -13 -13 -14 -14 -14 -14
-7 -7 -8 -8 -8 -8 -8 -8 -8 -8 -9 -9 -10 -9 -9 -9 -9 -9 -9 -8 -10 -10 -11 -11 -11 -11 -11 -12 -12 -13 -13 -13 -13 -14 -14 -14 -14 -14 -15 -15 -15 -15 -15
-7 -7 -7 -8 -8 -8 -9 -9 -9 -9 -10 -10 -10 -10 -11 -11 -11 -11 -11 -11 -11 -12 -12 -13 -13 -13 -13 -13 -14 -14 -14 -15 -15 -15 -15 -15 -15 -15 -16 -16 -16 -15 -15
-8 -8 -8 -8 -9 -9 -10 -10 -10 -10 -11 -11 -12 -12 -12 -12 -13 -13 -13 -13 -14 -14 -14 -14 -14 -14 -14 -15 -15 -15 -15 -15 -16 -16 -16 -16 -16 -16 -17 -17 -17 -17 -17
-9 -8 -9 -9 -9 -10 -10 -10 -11 -11 -12 -13 -13 -13 -13 -14 -15 -15 -15 -15 -15 -15 -15 -15 -15 -16 -16 -16 -16 -16 -16 -17 -17 -17 -17 -17 -17 -17 -17 -17 -17 -17 -17
-10 -10 -10 -11 -11 -11 -11 -12 -12 -12 -13 -13 -14 -14 -14 -15 -15 -16 -16 -16 -16 -16 -16 -16 -17 -17 -17 -17 -17 -17 -17 -18 -18 -18 -18 -18 -18 -18 -18 -18 -18 -18 -18
-11 -11 -11 -12 -12 -12 -12 -13 -13 -13 -14 -14 -15 -15 -15 -16 -16 -16 -17 -17 -17 -17 -17 -17 -17 -18 -18 -18 -18 -18 -18 -19 -19 -19 -19 -19 -19 -19 -20 -19 -19 -19 -18
-11 -12 -13 -13 -13 -13 -13 -14 -14 -14 -14 -15 -15 -16 -16 -16 -17 -17 -17 -17 -18 -18 -18 -18 -18 -18 -19 -19 -19 -19 -19 -20 -20 -20 -21 -21 -21 -21 -20 -20 -19 -19 -19
-13 -13 -13 -14 -14 -14 -14 -15 -15 -15 -15 -16 -16 -16 -17 -17 -17 -18 -18 -18 -18 -18 -19 -19 -19 -20 -20 -20 -20 -20 -20 -21 -21 -22 -21 -21 -21 -21 -21 -20 -20 -20 -19
-14 -14 -15 -15 -15 -15 -15 -16 -16 -16 -17 -17 -17 -17 -18 -18 -18 -19 -19 -19 -19 -20 -20 -20 -20 -20 -21 -21 -21 -21 -21 -22 -22 -22 -22 -21 -21 -21 -21 -21 -20 -20 -20

GFSGL_925_temp_069.txt.gz
Temp
12 12 12 12 12 12 12 12 12 12 13 13 14 14 13 13 13 12 12 13 13 14 15 15 16 16 15 15 15 15 14 13 13 14 14 15 15 16 16 16 16 16 16
12 12 12 12 12 12 12 12 13 13 14 14 13 13 13 14 13 13 13 13 14 14 15 15 15 15 14 14 13 13 13 13 12 13 14 13 14 15 15 15 15 15 15
12 12 12 12 12 12 12 13 13 14 13 13 13 13 13 13 13 13 14 14 14 14 14 14 13 13 14 13 13 13 13 13 12 12 13 13 13 13 13 13 13 13 13
12 13 12 12 12 12 12 12 13 13 13 13 13 12 12 12 13 13 13 13 13 13 13 13 13 13 13 13 13 13 13 12 12 11 12 12 12 12 12 11 11 12 12
11 10 11 12 12 12 12 12 12 12 12 12 13 13 12 12 12 12 13 13 13 12 13 13 13 13 13 13 13 13 13 12 12 12 12 12 12 11 10 11 9 11 11
7 6 7 9 10 11 12 12 12 12 12 12 12 12 12 12 13 12 12 12 12 12 12 12 13 13 13 13 13 13 14 12 11 12 13 13 13 13 12 10 11 10 9
4 4 5 5 6 7 8 9 11 12 12 12 12 12 12 12 13 13 13 12 12 12 12 12 12 12 12 12 12 13 13 13 13 13 13 12 12 12 12 10 9 11 9
3 3 3 2 3 3 4 5 5 6 8 9 11 12 12 12 12 13 13 12 11 11 12 12 12 12 12 12 11 11 12 12 12 12 11 11 11 10 10 10 9 6 1
1 1 0 0 1 2 2 2 2 4 4 5 6 7 9 12 12 12 13 12 11 11 11 11 11 11 12 12 12 11 10 8 6 5 5 4 4 4 4 5 3 1 -2
-1 -1 -2 -2 -1 -1 -1 -0 0 1 2 3 3 3 3 5 7 9 10 10 11 11 11 11 11 10 11 11 11 10 5 1 -2 -3 -3 -2 -1 -1 -0 0 -0 -2 -3
-2 -3 -3 -4 -3 -3 -2 -2 -1 -0 0 -1 -1 -1 -1 -2 -1 1 5 7 8 10 9 5 4 3 5 6 7 8 3 -3 -4 -4 -5 -6 -5 -4 -5 -5 -4 -4 -6
-4 -4 -4 -4 -4 -4 -4 -3 -2 -2 -2 -2 -3 -4 -4 -4 -4 -3 -0 3 4 2 -2 -3 -3 -3 -2 -1 -1 -3 -4 -5 -5 -6 -6 -7 -7 -7 -7 -7 -7 -7 -7
-4 -5 -5 -5 -5 -4 -4 -4 -3 -3 -3 -3 -4 -4 -4 -5 -5 -5 -5 -4 -4 -4 -5 -6 -6 -6 -6 -6 -6 -4 -4 -5 -6 -7 -8 -9 -9 -8 -8 -8 -8 -8 -9
-5 -5 -6 -5 -6 -6 -5 -5 -5 -4 -4 -4 -4 -4 -5 -5 -5 -5 -6 -6 -6 -6 -6 -7 -7 -7 -7 -6 -7 -8 -7 -8 -8 -9 -9 -9 -9 -9 -10 -10 -10 -10 -10
-6 -6 -7 -7 -6 -6 -7 -6 -6 -6 -6 -6 -6 -6 -5 -5 -6 -6 -6 -7 -7 -7 -7 -8 -8 -9 -9 -9 -10 -10 -10 -10 -10 -10 -11 -11 -11 -12 -12 -12 -12 -12 -12
-6 -7 -7 -7 -7 -7 -7 -7 -8 -7 -7 -7 -7 -7 -7 -7 -7 -7 -7 -7 -7 -7 -9 -9 -10 -10 -10 -11 -11 -11 -11 -12 -12 -12 -12 -12 -12 -12 -13 -13 -13 -13 -13
-8 -8 -8 -8 -8 -8 -8 -9 -9 -9 -9 -9 -8 -8 -8 -8 -8 -8 -8 -9 -9 -8 -10 -11 -11 -11 -11 -12 -12 -13 -13 -13 -13 -13 -13 -14 -14 -14 -14 -14 -14 -14 -13
-7 -8 -8 -8 -9 -9 -9 -10 -10 -10 -11 -11 -11 -10 -10 -10 -9 -9 -8 -7 -10 -12 -12 -13 -13 -13 -13 -13 -14 -14 -14 -14 -14 -14 -14 -14 -14 -15 -15 -15 -15 -15 -15
-8 -8 -8 -8 -9 -9 -9 -10 -11 -11 -12 -12 -12 -11 -12 -12 -12 -12 -12 -12 -13 -14 -14 -14 -14 -14 -14 -14 -14 -14 -15 -15 -15 -15 -16 -16 -15 -16 -16 -16 -16 -16 -16
-8 -9 -9 -9 -9 -10 -10 -11 -12 -12 -13 -14 -14 -14 -13 -11 -13 -14 -14 -14 -14 -15 -15 -15 -15 -15 -15 -15 -15 -15 -16 -16 -17 -17 -17 -17 -17 -17 -17 -17 -17 -17 -17
-9 -9 -9 -10 -10 -11 -11 -12 -13 -13 -14 -15 -15 -15 -15 -15 -16 -16 -16 -15 -16 -16 -16 -16 -16 -16 -16 -16 -16 -17 -17 -18 -18 -18 -18 -18 -18 -18 -18 -18 -18 -18 -18
-10 -10 -11 -11 -11 -12 -12 -13 -13 -14 -14 -15 -15 -15 -15 -16 -16 -17 -17 -17 -17 -17 -17 -17 -17 -17 -18 -18 -18 -18 -18 -18 -19 -19 -19 -19 -19 -19 -19 -18 -18 -18 -18
-11 -11 -12 -12 -12 -12 -13 -14 -14 -14 -15 -15 -16 -16 -16 -17 -17 -17 -17 -18 -18 -18 -18 -18 -18 -18 -19 -19 -19 -19 -19 -20 -20 -20 -19 -19 -20 -20 -20 -19 -19 -19 -19
-12 -12 -13 -13 -13 -13 -14 -14 -15 -15 -15 -16 -16 -17 -17 -17 -18 -18 -18 -18 -18 -19 -19 -19 -19 -19 -20 -20 -20 -20 -20 -20 -21 -21 -20 -20 -20 -20 -20 -20 -20 -20 -19
-13 -13 -14 -14 -14 -14 -15 -15 -15 -16 -16 -16 -17 -17 -18 -18 -18 -19 -19 -19 -19 -19 -19 -20 -20 -20 -20 -20 -20 -20 -21 -21 -21 -21 -21 -21 -21 -21 -21 -21 -20 -20 -19
-14 -15 -15 -15 -15 -15 -16 -16 -16 -17 -17 -17 -18 -18 -18 -18 -19 -19 -19 -20 -20 -20 -20 -20 -21 -21 -21 -21 -21 -21 -22 -22 -22 -22 -22 -22 -22 -22 -21 -21 -21 -20 -20

GFSGL_925_temp_072.txt.gz
Temp
12 11 12 12 12 12 12 12 12 13 12 12 12 12 12 12 12 12 12 12 12 13 12 12 13 14 13 14 14 14 13 13 13 14 15 15 15 15 16 16 16 16 16
12 12 12 12 12 12 12 12 12 12 12 12 13 13 13 13 13 12 12 12 12 12 12 12 12 12 12 12 12 13 13 13 12 13 14 14 14 15 15 15 15 15 15
12 12 12 12 12 12 13 13 12 12 12 12 12 13 13 13 13 13 13 12 12 12 12 12 12 12 12 12 12 12 12 12 12 12 13 13 13 13 13 14 14 13 14
12 12 12 12 12 12 12 13 13 13 13 13 13 13 13 13 13 12 12 12 12 12 12 12 12 12 13 13 13 13 13 12 12 11 12 12 13 13 12 11 11 12 12
8 9 9 10 12 12 12 12 12 13 13 13 13 13 13 14 13 12 12 12 12 12 12 12 12 12 13 13 13 13 12 12 12 12 13 13 12 12 11 12 10 10 11
5 5 6 7 8 9 9 10 11 12 12 12 12 12 12 12 12 12 12 12 11 12 12 12 12 12 12 13 13 13 14 13 12 12 13 13 13 13 13 12 11 11 11
3 3 3 3 4 5 6 7 7 8 9 9 10 11 11 11 12 12 12 12 11 12 12 12 12 12 12 12 12 12 12 13 13 13 13 12 12 13 13 13 12 11 12
0 0 0 1 1 2 3 3 3 4 5 5 6 6 7 6 7 8 9 10 10 11 11 11 11 11 11 11 11 11 11 12 12 12 10 11 10 9 10 10 11 10 6
-1 -2 -2 -2 -1 -0 -0 0 1 1 2 2 2 2 2 1 0 3 5 7 8 10 10 11 10 11 11 11 11 10 10 10 7 7 5 3 -2 0 5 7 5 5 -1
-3 -4 -4 -2 -2 -2 -2 -1 -0 0 0 -1 -2 -2 -2 -2 -2 1 4 6 7 7 9 5 5 5 9 10 8 9 10 5 2 -1 -1 -2 -2 -2 -1 -0 -0 0 -2
-4 -4 -5 -4 -3 -3 -3 -2 -2 -2 -2 -3 -3 -4 -4 -4 -4 -3 1 2 2 1 -2 -3 -3 -3 1 4 3 4 3 -3 -5 -5 -5 -6 -6 -6 -4 -3 -3 -4 -7
-5 -5 -5 -5 -4 -5 -4 -4 -3 -3 -3 -4 -4 -4 -5 -5 -5 -5 -6 -5 -4 -5 -6 -6 -6 -6 -5 -4 -4 -5 -5 -5 -5 -7 -8 -8 -8 -8 -8 -8 -8 -8 -8
-5 -5 -6 -6 -6 -6 -5 -5 -4 -4 -4 -4 -4 -5 -5 -5 -6 -6 -6 -7 -7 -7 -7 -8 -8 -8 -8 -8 -8 -8 -6 -7 -8 -9 -9 -10 -9 -9 -9 -9 -9 -9 -10
-6 -6 -6 -6 -6 -6 -6 -6 -6 -6 -6 -6 -6 -6 -6 -6 -7 -6 -6 -6 -6 -7 -7 -7 -8 -9 -9 -9 -8 -9 -10 -10 -10 -10 -11 -11 -10 -10 -10 -10 -10 -10 -11
-6 -7 -7 -7 -7 -7 -7 -7 -7 -7 -7 -7 -7 -7 -7 -6 -6 -7 -7 -7 -7 -7 -6 -6 -8 -9 -10 -11 -11 -11 -11 -11 -11 -11 -11 -12 -12 -12 -12 -12 -12 -12 -12
-7 -7 -8 -8 -8 -8 -8 -8 -8 -8 -8 -7 -7 -7 -7 -7 -7 -8 -8 -8 -8 -8 -9 -11 -11 -11 -12 -12 -12 -13 -12 -13 -13 -13 -13 -13 -13 -13 -13 -13 -13 -13 -13
-7 -8 -8 -8 -8 -9 -9 -10 -11 -11 -10 -10 -9 -9 -8 -8 -8 -9 -10 -10 -9 -7 -12 -13 -13 -13 -13 -13 -14 -14 -14 -14 -14 -14 -14 -14 -14 -14 -14 -14 -14 -13 -13
-7 -8 -8 -8 -9 -9 -10 -11 -11 -12 -12 -13 -12 -11 -10 -10 -11 -11 -11 -9 -11 -13 -14 -14 -14 -14 -14 -15 -15 -15 -15 -15 -15 -15 -15 -15 -15 -15 -15 -15 -15 -15 -15
-8 -9 -9 -9 -10 -10 -11 -11 -12 -13 -13 -14 -13 -12 -13 -13 -13 -13 -12 -13 -15 -15 -15 -15 -15 -15 -15 -15 -16 -16 -16 -16 -16 -16 -16 -16 -16 -16 -17 -17 -16 -17 -16
-9 -9 -9 -10 -10 -11 -11 -12 -13 -14 -14 -15 -15 -15 -13 -12 -14 -15 -15 -15 -15 -16 -16 -16 -16 -16 -16 -16 -16 -16 -16 -17 -17 -17 -17 -17 -17 -17 -17 -17 -17 -18 -17
-9 -10 -10 -11 -11 -12 -12 -13 -14 -14 -15 -16 -16 -16 -15 -15 -16 -16 -16 -16 -16 -16 -16 -16 -17 -17 -17 -17 -17 -17 -18 -18 -18 -18 -18 -18 -18 -18 -18 -18 -18 -18 -18
-10 -11 -11 -12 -12 -13 -13 -14 -14 -15 -15 -16 -16 -16 -16 -16 -17 -17 -17 -17 -17 -18 -18 -17 -17 -18 -18 -18 -18 -18 -19 -19 -19 -19 -19 -19 -19 -19 -19 -19 -19 -19 -18
-11 -11 -12 -13 -13 -13 -14 -14 -15 -15 -16 -16 -16 -17 -17 -17 -17 -18 -18 -18 -18 -18 -18 -18 -18 -19 -19 -20 -20 -20 -20 -20 -21 -21 -20 -20 -20 -20 -20 -20 -19 -19 -19
-12 -12 -13 -14 -14 -14 -15 -15 -15 -16 -16 -16 -17 -17 -18 -18 -18 -19 -19 -19 -19 -19 -19 -20 -20 -20 -20 -21 -21 -21 -21 -22 -22 -21 -21 -21 -21 -21 -21 -20 -20 -20 -19
-14 -14 -14 -14 -15 -15 -15 -16 -16 -17 -17 -17 -18 -18 -19 -19 -19 -19 -20 -20 -20 -20 -20 -21 -21 -21 -21 -21 -21 -21 -22 -22 -22 -22 -21 -21 -21 -21 -21 -21 -20 -20 -20
-15 -15 -15 -16 -16 -16 -16 -17 -17 -17 -18 -18 -18 -19 -19 -19 -20 -20 -20 -21 -21 -21 -21 -21 -21 -21 -21 -21 -21 -22 -22 -22 -22 -22 -22 -21 -21 -21 -21 -21 -21 -21 -21

GFSGL_925_temp_075.txt.gz
Temp
12 12 12 12 12 12 12 12 12 12 12 12 12 12 12 12 12 12 12 12 12 13 13 13 13 12 14 13 12 12 12 12 12 14 15 15 14 15 16 16 16 17 17
12 12 12 11 11 11 11 12 12 12 12 12 12 11 11 11 12 11 11 12 12 12 12 12 11 12 11 12 11 12 12 12 12 14 15 15 15 14 14 14 15 16 15
12 12 12 12 12 11 11 11 11 12 12 12 12 12 12 12 12 11 12 12 11 11 11 11 11 11 11 11 11 12 12 12 13 13 14 14 15 15 14 12 13 13 13
12 12 11 11 12 12 11 11 11 11 11 12 12 12 12 12 12 13 12 12 12 12 12 12 12 12 13 13 12 13 12 12 13 12 12 13 14 15 14 13 14 14 12
7 7 7 9 10 11 11 11 12 12 12 11 11 11 12 12 12 12 12 12 12 12 12 12 12 12 12 13 13 13 13 13 13 13 13 14 14 14 14 14 13 13 13
4 3 4 5 6 6 7 9 10 10 10 11 11 11 11 10 9 10 11 11 12 12 12 12 12 12 12 12 12 13 13 14 13 13 13 14 14 14 14 14 14 14 14
1 2 2 3 3 3 4 5 5 6 7 6 6 7 7 6 5 7 8 9 10 10 11 11 12 12 12 11 12 12 12 12 12 13 13 13 13 13 13 13 13 13 13
1 0 1 1 2 2 2 2 3 3 3 3 2 3 2 1 3 4 6 8 8 8 9 10 10 10 11 10 10 10 10 11 10 10 9 9 9 8 8 8 8 10 8
-1 -1 -0 -0 -0 0 0 1 1 2 1 -1 -1 -1 -2 -2 0 3 6 7 7 6 5 5 3 4 6 8 9 9 10 8 3 5 4 3 0 -1 1 3 3 3 1
-3 -3 -2 -2 -2 -1 -1 -1 -1 -1 -2 -2 -3 -3 -4 -3 -4 -1 2 1 2 -0 -1 -2 -3 -0 2 4 5 5 4 0 -0 -2 -2 -1 -2 -2 -1 -1 0 1 0
-4 -4 -4 -3 -3 -2 -2 -2 -2 -2 -3 -3 -3 -4 -4 -5 -5 -5 -2 -3 -4 -5 -6 -6 -6 -5 -5 -4 -1 -1 -4 -4 -5 -5 -6 -7 -7 -7 -7 -5 -5 -5 -6
-4 -4 -4 -5 -4 -4 -3 -3 -3 -3 -3 -3 -4 -4 -5 -6 -6 -6 -6 -6 -5 -6 -7 -7 -7 -7 -7 -7 -7 -7 -7 -6 -7 -8 -9 -9 -9 -9 -9 -8 -8 -8 -8
-4 -5 -5 -5 -5 -5 -5 -5 -5 -5 -4 -4 -5 -5 -5 -6 -6 -7 -7 -7 -7 -7 -7 -8 -8 -8 -8 -8 -6 -6 -6 -8 -9 -9 -9 -9 -10 -9 -9 -9 -9 -10 -10
-5 -5 -5 -6 -6 -6 -6 -6 -6 -5 -5 -5 -5 -5 -5 -6 -6 -6 -7 -7 -7 -7 -7 -8 -9 -9 -8 -9 -9 -9 -9 -9 -9 -9 -10 -10 -10 -10 -10 -10 -9 -9 -10
-6 -6 -6 -6 -6 -7 -7 -7 -7 -7 -6 -6 -6 -6 -6 -6 -7 -7 -7 -7 -8 -8 -8 -8 -8 -8 -9 -9 -10 -10 -10 -10 -10 -10 -10 -10 -10 -11 -11 -11 -10 -10 -10
-6 -6 -7 -7 -7 -7 -7 -8 -9 -8 -8 -8 -8 -7 -8 -8 -8 -8 -9 -9 -8 -9 -9 -9 -10 -10 -10 -10 -11 -11 -11 -12 -11 -11 -11 -11 -11 -11 -12 -12 -11 -11 -11
-7 -7 -7 -8 -8 -8 -8 -8 -9 -11 -11 -10 -10 -9 -9 -9 -9 -10 -11 -10 -10 -10 -10 -11 -11 -11 -11 -12 -12 -12 -13 -13 -13 -13 -13 -12 -12 -13 -12 -12 -12 -11 -12
-8 -8 -9 -9 -10 -10 -10 -11 -11 -11 -11 -12 -13 -13 -11 -11 -12 -12 -10 -10 -11 -12 -12 -12 -12 -12 -13 -13 -13 -14 -14 -14 -14 -14 -14 -14 -14 -13 -13 -13 -13 -13 -12
-9 -9 -10 -10 -10 -11 -11 -11 -12 -12 -13 -13 -13 -13 -13 -14 -14 -13 -13 -13 -13 -13 -13 -13 -14 -14 -14 -14 -15 -15 -16 -16 -16 -16 -16 -16 -15 -15 -15 -15 -14 -15 -14
-10 -9 -10 -11 -11 -11 -12 -12 -12 -13 -13 -14 -14 -15 -14 -14 -14 -15 -15 -15 -15 -15 -15 -15 -15 -16 -16 -16 -16 -16 -16 -17 -17 -16 -17 -17 -17 -16 -16 -16 -16 -15 -15
-11 -11 -11 -11 -12 -12 -12 -13 -13 -14 -14 -15 -16 -16 -16 -15 -16 -16 -16 -17 -16 -16 -17 -16 -17 -17 -17 -17 -18 -18 -18 -18 -19 -19 -18 -18 -18 -17 -17 -17 -17 -16 -16
-11 -11 -12 -12 -13 -13 -13 -14 -14 -14 -15 -15 -16 -17 -16 -17 -17 -17 -18 -18 -18 -18 -18 -18 -18 -19 -19 -19 -19 -19 -20 -20 -20 -20 -20 -20 -19 -19 -18 -18 -17 -17 -17
-12 -13 -13 -13 -14 -14 -14 -15 -15 -15 -16 -16 -17 -17 -18 -18 -19 -19 -19 -19 -19 -19 -19 -20 -20 -20 -20 -20 -21 -21 -21 -21 -22 -21 -21 -21 -20 -19 -19 -18 -18 -18 -18
-13 -14 -14 -15 -15 -15 -16 -16 -16 -16 -17 -17 -18 -18 -19 -19 -20 -19 -19 -19 -20 -20 -19 -20 -20 -20 -21 -21 -21 -22 -22 -21 -21 -22 -20 -21 -21 -20 -20 -19 -19 -20 -19
-14 -14 -15 -16 -16 -16 -17 -17 -17 -18 -18 -18 -19 -19 -20 -20 -20 -20 -20 -20 -20 -20 -20 -20 -21 -21 -21 -21 -21 -22 -22 -22 -22 -22 -22 -22 -21 -21 -21 -21 -21 -19 -20
-15 -15 -16 -17 -17 -17 -17 -18 -18 -18 -19 -19 -19 -19 -20 -20 -20 -20 -21 -21 -21 -21 -21 -21 -21 -21 -21 -22 -22 -22 -22 -22 -22 -22 -22 -23 -22 -22 -22 -21 -21 -20 -20

GFSGL_925_temp_078.txt.gz
Temp
13 13 15 15 14 13 13 13 13 12 12 12 12 12 12 12 12 11 12 12 11 11 12 12 13 14 13 13 13 13 13 13 13 14 14 15 15 16 16 16 15 14 15
13 13 14 14 14 14 13 13 12 12 12 12 12 12 12 12 12 12 12 12 11 11 12 11 12 12 12 12 13 13 12 12 11 12 13 14 14 15 16 16 15 16 15
13 13 13 12 12 13 14 14 14 13 12 12 12 12 12 12 12 12 12 12 12 12 12 12 12 12 12 12 12 12 12 12 12 11 12 14 16 16 16 16 16 16 15
12 11 11 12 12 12 12 13 13 13 13 12 12 12 12 12 12 13 13 13 13 12 13 12 12 13 13 13 13 13 13 13 13 13 14 15 15 15 16 16 16 16 16
6 6 6 8 9 10 11 12 12 12 13 14 14 13 13 12 10 13 13 12 12 13 13 13 14 14 14 14 14 14 14 14 14 14 14 15 15 15 16 16 16 16 16
4 4 5 5 5 6 7 8 9 9 10 10 11 11 10 7 6 10 11 11 11 12 12 13 13 13 13 13 13 13 14 14 14 14 14 14 14 15 15 15 16 15 15
3 4 4 5 4 4 4 4 5 5 5 5 4 4 4 3 4 6 7 9 9 9 9 9 10 11 11 11 11 12 12 12 12 12 12 13 13 12 12 13 13 13 13
3 3 3 3 4 5 5 4 4 2 1 0 0 0 0 -1 2 5 6 7 6 5 4 4 4 5 6 6 8 9 10 9 8 8 7 5 3 4 5 5 6 6 5
1 1 1 2 2 3 2 2 2 2 0 -1 -1 -1 -1 -3 -2 2 4 5 2 -1 -3 -2 -1 -1 1 4 5 5 6 3 -0 1 -1 -1 -1 -0 1 2 1 2 3
-1 -0 -0 0 1 1 1 1 1 0 -0 -1 -1 -2 -3 -2 -4 -1 -1 -1 -2 -3 -4 -4 -5 -4 -2 2 1 1 -2 -4 -4 -3 -3 -3 -3 -3 -3 -4 -4 -2 -1
-2 -2 -2 -1 -1 -1 -0 -0 -0 -0 -1 -1 -2 -3 -3 -5 -5 -5 -4 -3 -4 -5 -5 -6 -6 -6 -6 -5 -4 -4 -6 -5 -6 -6 -6 -6 -6 -6 -7 -7 -7 -7 -7
-2 -2 -3 -2 -1 -1 -2 -1 -1 -1 -1 -1 -2 -3 -4 -5 -6 -6 -6 -5 -4 -4 -5 -6 -7 -7 -7 -7 -6 -6 -5 -5 -5 -6 -7 -7 -7 -7 -7 -8 -8 -8 -9
-3 -3 -3 -3 -3 -2 -2 -1 -1 -1 -1 -1 -2 -3 -4 -4 -4 -6 -6 -7 -7 -6 -7 -7 -7 -7 -6 -7 -7 -6 -6 -5 -5 -5 -6 -6 -7 -8 -7 -6 -7 -7 -8
-3 -3 -4 -3 -3 -3 -4 -3 -3 -3 -3 -3 -3 -3 -4 -5 -5 -5 -5 -5 -6 -6 -6 -6 -6 -6 -7 -7 -7 -7 -7 -7 -7 -6 -7 -7 -7 -7 -7 -7 -6 -6 -6
-3 -3 -4 -4 -5 -6 -6 -6 -6 -7 -5 -5 -5 -5 -5 -6 -7 -8 -7 -7 -6 -7 -6 -6 -6 -6 -6 -7 -7 -8 -8 -7 -7 -7 -7 -7 -7 -7 -7 -7 -7 -7 -6
-3 -4 -4 -4 -4 -4 -6 -8 -9 -8 -8 -8 -8 -7 -8 -8 -9 -9 -9 -9 -8 -7 -6 -6 -7 -7 -7 -7 -8 -8 -9 -9 -9 -8 -8 -8 -8 -8 -8 -8 -8 -8 -7
-4 -4 -5 -4 -4 -5 -4 -4 -6 -10 -11 -10 -10 -10 -10 -10 -10 -10 -10 -10 -9 -7 -7 -8 -8 -8 -8 -8 -9 -9 -10 -10 -10 -10 -10 -10 -9 -9 -9 -9 -9 -8 -8
-7 -7 -6 -6 -6 -6 -7 -7 -7 -7 -7 -9 -12 -12 -12 -12 -11 -11 -10 -8 -8 -9 -9 -9 -9 -9 -9 -10 -10 -10 -11 -11 -11 -11 -11 -11 -11 -10 -10 -10 -10 -10 -9
-7 -7 -7 -8 -8 -8 -8 -8 -8 -8 -8 -9 -9 -10 -12 -12 -12 -12 -11 -10 -9 -10 -10 -10 -11 -11 -11 -11 -12 -12 -13 -13 -13 -13 -12 -12 -12 -11 -11 -11 -11 -12 -11
-8 -9 -8 -7 -8 -8 -8 -8 -8 -9 -9 -10 -11 -12 -10 -10 -11 -11 -12 -12 -11 -11 -11 -12 -12 -12 -13 -13 -13 -13 -13 -13 -13 -13 -13 -14 -13 -13 -12 -12 -12 -12 -11
-8 -9 -9 -8 -8 -8 -9 -9 -9 -10 -10 -11 -13 -15 -14 -11 -12 -12 -13 -13 -13 -13 -13 -13 -13 -14 -14 -14 -14 -14 -15 -15 -15 -15 -15 -15 -15 -14 -14 -13 -13 -13 -13
-8 -8 -9 -9 -9 -9 -10 -10 -10 -11 -11 -11 -12 -14 -15 -13 -13 -13 -14 -15 -15 -15 -15 -15 -15 -16 -16 -16 -16 -16 -16 -16 -17 -17 -16 -16 -15 -15 -14 -14 -14 -14 -13
-9 -9 -9 -10 -11 -11 -11 -11 -11 -11 -12 -13 -13 -14 -14 -14 -15 -15 -16 -16 -16 -17 -17 -16 -17 -17 -18 -18 -18 -18 -18 -18 -19 -19 -19 -17 -16 -16 -15 -15 -15 -15 -15
-10 -10 -10 -11 -11 -11 -11 -12 -13 -14 -13 -13 -14 -14 -15 -15 -16 -17 -17 -17 -18 -18 -18 -18 -19 -19 -19 -19 -19 -19 -20 -21 -21 -20 -21 -19 -18 -17 -17 -16 -15 -16 -16
-12 -12 -12 -12 -12 -13 -13 -13 -13 -14 -14 -14 -15 -15 -16 -16 -17 -17 -18 -18 -19 -19 -19 -20 -20 -20 -19 -21 -21 -21 -22 -21 -22 -21 -21 -20 -19 -20 -19 -18 -18 -16 -16
-13 -13 -13 -13 -13 -14 -14 -14 -14 -15 -15 -15 -16 -16 -17 -17 -17 -18 -19 -19 -20 -20 -20 -19 -20 -21 -21 -20 -21 -22 -22 -22 -22 -22 -22 -20 -20 -19 -19 -18 -18 -17 -16

GFSGL_925_temp_081.txt.gz
Temp
16 17 16 16 16 16 15 15 15 15 14 13 13 12 12 12 12 11 11 12 12 13 13 13 13 13 13 14 14 14 14 15 15 16 16 16 16 16 16 17 16 16 15
15 15 15 15 15 15 15 15 15 14 13 13 13 12 12 12 12 12 11 11 11 11 11 11 11 12 12 13 13 13 13 13 13 13 13 14 14 14 14 14 15 16 17
14 14 14 15 15 15 14 14 13 13 12 12 13 13 13 12 12 12 12 11 11 11 11 11 11 11 12 12 12 12 12 12 12 12 13 13 13 14 14 14 15 15 16
12 12 12 13 14 14 14 15 14 13 13 13 12 12 12 12 12 12 12 12 12 12 12 12 12 12 12 12 11 12 13 13 13 14 14 14 14 15 15 15 15 16 16
7 7 7 8 10 11 11 12 12 12 11 12 12 11 10 10 10 11 11 12 12 13 13 13 13 13 13 12 13 14 14 14 14 14 14 15 15 15 15 16 16 16 16
5 5 5 5 6 7 7 7 9 9 9 9 8 7 6 5 5 8 11 11 11 11 11 11 11 11 12 12 12 13 12 11 13 13 13 14 14 15 15 15 15 15 15
3 4 5 5 5 5 5 5 4 3 4 4 3 3 2 3 5 6 8 8 7 7 7 7 7 7 8 9 10 9 9 9 7 7 7 7 6 6 5 6 6 6 6
3 3 4 5 5 4 3 3 2 1 1 0 0 0 1 1 4 6 5 5 4 2 2 1 1 2 3 5 6 5 4 3 3 2 1 -1 -1 0 1 2 2 2 3
1 2 3 3 4 3 3 2 2 1 -0 -0 -1 -1 -2 -2 0 3 3 1 -1 -2 -3 -2 -3 -2 1 3 3 2 -1 -2 -3 -2 -2 -2 -2 -0 1 2 1 -1 2
0 1 1 1 2 1 2 1 1 1 1 0 -1 -2 -2 -3 -3 -2 -1 -1 -2 -3 -4 -5 -5 -5 -5 -2 -2 -2 -5 -5 -3 -3 -3 -3 -3 -3 -3 -3 -4 -4 -4
-1 -0 -0 0 0 1 1 1 1 1 1 -0 -1 -2 -3 -4 -5 -3 -1 -2 -2 -3 -4 -5 -6 -5 -5 -5 -5 -5 -6 -5 -5 -5 -5 -5 -5 -6 -6 -6 -7 -6 -5
-2 -2 -2 -1 -1 0 0 -0 -0 1 0 -0 -2 -2 -3 -4 -5 -6 -5 -4 -4 -4 -5 -6 -6 -6 -6 -6 -5 -5 -5 -4 -4 -4 -4 -5 -6 -6 -6 -6 -7 -7 -7
-0 -1 -2 -2 -3 -3 -2 -1 -1 -0 -1 -1 -2 -2 -3 -4 -4 -4 -5 -6 -6 -6 -6 -6 -6 -6 -6 -6 -6 -6 -5 -5 -5 -5 -5 -6 -6 -6 -5 -5 -5 -5 -5
-1 -2 -2 -2 -2 -2 -3 -4 -4 -3 -2 -3 -2 -3 -4 -5 -5 -5 -5 -5 -5 -5 -5 -5 -5 -5 -6 -6 -6 -6 -6 -6 -6 -6 -5 -6 -5 -5 -5 -5 -5 -4 -4
-1 -2 -3 -4 -5 -6 -7 -6 -6 -7 -6 -5 -5 -6 -5 -6 -8 -8 -7 -6 -6 -5 -5 -5 -5 -5 -5 -5 -6 -7 -7 -6 -6 -6 -6 -6 -6 -6 -6 -6 -5 -5 -5
-2 -2 -2 -2 -3 -4 -6 -8 -9 -8 -8 -8 -8 -7 -8 -8 -8 -8 -8 -7 -6 -5 -5 -5 -5 -6 -6 -6 -6 -7 -8 -8 -7 -7 -7 -7 -6 -7 -6 -7 -6 -6 -6
-3 -3 -3 -3 -3 -3 -4 -5 -7 -10 -9 -10 -10 -9 -9 -9 -9 -9 -8 -7 -6 -5 -5 -6 -6 -7 -7 -7 -7 -7 -8 -9 -9 -8 -8 -9 -8 -8 -7 -7 -8 -7 -7
-6 -5 -5 -5 -5 -5 -5 -6 -5 -5 -6 -9 -10 -11 -11 -10 -10 -9 -8 -6 -6 -7 -7 -7 -7 -8 -8 -8 -9 -9 -9 -10 -10 -9 -10 -10 -10 -9 -9 -8 -8 -9 -9
-6 -6 -6 -6 -6 -6 -6 -6 -6 -6 -6 -7 -8 -8 -9 -10 -10 -9 -9 -8 -7 -8 -8 -8 -9 -9 -9 -9 -10 -10 -11 -11 -11 -11 -11 -11 -11 -10 -10 -10 -10 -10 -9
-7 -7 -6 -5 -6 -6 -6 -6 -6 -6 -7 -8 -10 -10 -8 -8 -9 -9 -10 -10 -9 -9 -9 -10 -10 -11 -11 -11 -11 -12 -11 -12 -12 -12 -12 -12 -12 -11 -11 -11 -10 -10 -10
-6 -6 -6 -6 -6 -6 -6 -7 -7 -7 -8 -9 -11 -13 -12 -9 -10 -10 -11 -11 -11 -11 -11 -11 -12 -12 -12 -12 -12 -12 -13 -13 -13 -13 -13 -13 -13 -12 -12 -11 -12 -11 -11
-6 -6 -7 -7 -7 -7 -7 -7 -8 -8 -8 -9 -10 -12 -12 -11 -11 -11 -12 -13 -13 -13 -13 -13 -13 -14 -15 -15 -14 -14 -14 -15 -15 -16 -16 -15 -14 -13 -13 -12 -12 -13 -12
-7 -7 -7 -8 -8 -8 -8 -8 -8 -9 -9 -10 -10 -11 -11 -12 -12 -12 -13 -14 -14 -15 -16 -15 -15 -15 -16 -16 -16 -16 -16 -17 -17 -17 -18 -17 -15 -14 -15 -13 -13 -13 -14
-8 -8 -8 -9 -10 -9 -9 -9 -11 -12 -11 -11 -11 -12 -12 -13 -13 -14 -15 -16 -16 -16 -16 -16 -17 -18 -18 -19 -17 -17 -19 -21 -21 -19 -20 -18 -17 -16 -16 -15 -14 -14 -14
-10 -9 -10 -10 -10 -10 -10 -10 -11 -11 -11 -12 -12 -12 -13 -13 -14 -14 -15 -16 -17 -17 -17 -18 -18 -18 -18 -19 -19 -20 -21 -21 -22 -22 -21 -19 -17 -18 -16 -16 -16 -16 -15
-11 -11 -11 -11 -11 -11 -11 -11 -12 -12 -12 -13 -13 -13 -14 -14 -15 -15 -16 -17 -17 -18 -18 -18 -18 -19 -19 -19 -19 -20 -20 -22 -21 -20 -20 -20 -18 -17 -17 -18 -17 -17 -16

GFSGL_925_temp_084.txt.gz
Temp
19 19 18 17 17 16 16 15 15 14 14 13 13 12 13 12 13 13 13 13 13 13 14 14 15 15 14 13 14 14 14 13 12 14 15 16 17 16 16 16 16 16 16
17 16 17 16 16 15 15 15 15 14 13 13 13 13 12 12 12 12 12 12 12 12 13 13 13 13 12 12 12 13 13 13 12 13 14 14 15 15 16 15 15 15 15
15 15 15 16 15 15 15 15 14 14 13 13 13 13 12 12 12 12 11 12 12 12 11 12 12 12 12 11 11 11 12 12 13 12 13 13 13 13 13 13 14 13 14
12 12 12 12 13 13 14 14 14 13 13 13 12 12 12 12 12 12 12 11 11 11 11 12 12 11 11 11 11 11 12 12 12 12 12 12 13 13 14 14 14 14 14
8 8 8 9 10 10 10 10 11 12 11 11 11 10 9 10 10 11 11 11 12 12 11 12 11 10 10 11 11 11 11 11 12 12 13 13 13 13 13 12 12 12 12
5 5 6 7 8 7 7 8 8 8 7 8 7 6 6 5 6 8 10 9 10 10 9 7 8 10 10 8 8 8 9 9 9 9 10 11 10 8 8 7 6 8 9
4 4 5 5 4 4 4 3 3 3 4 3 3 3 3 3 6 7 8 8 7 6 5 6 5 6 7 7 3 4 4 5 5 5 4 1 1 1 2 3 3 3 4
2 3 3 3 3 2 2 1 1 1 0 -0 -0 1 2 3 4 5 5 5 3 2 1 1 1 2 3 4 2 2 0 -0 0 0 -0 -2 -2 -0 1 1 1 1 1
-0 0 2 2 2 2 1 1 -0 -1 -1 -2 -2 -2 -1 -0 1 1 2 1 -1 -2 -2 -3 -2 -2 -1 2 2 -1 -3 -4 -4 -3 -3 -3 -2 -2 0 0 -1 -1 0
-1 -1 -0 0 1 1 1 1 0 -0 -1 -2 -3 -4 -4 -3 -2 -1 -1 -2 -3 -4 -4 -5 -4 -4 -5 -3 -2 -3 -5 -5 -4 -4 -4 -4 -4 -4 -3 -3 -4 -4 -5
-1 -1 -1 -1 -0 -0 0 1 -0 -1 -1 -2 -3 -4 -5 -4 -3 -2 -2 -3 -4 -5 -5 -6 -5 -5 -4 -5 -4 -4 -4 -4 -4 -4 -5 -5 -5 -5 -5 -5 -4 -4 -5
-2 -2 -2 -1 -1 -1 -1 -1 -0 -1 -2 -2 -3 -3 -4 -5 -5 -5 -4 -4 -5 -5 -5 -5 -6 -6 -5 -5 -4 -4 -4 -4 -5 -5 -5 -5 -5 -5 -5 -5 -5 -5 -5
-2 -3 -3 -3 -3 -3 -3 -2 -2 -2 -2 -3 -3 -4 -5 -5 -4 -5 -5 -5 -5 -5 -5 -5 -6 -6 -6 -6 -6 -6 -5 -5 -5 -5 -6 -6 -5 -5 -5 -5 -4 -4 -5
-3 -3 -5 -6 -6 -5 -5 -5 -5 -4 -4 -4 -4 -5 -6 -6 -5 -5 -5 -5 -5 -5 -5 -5 -5 -5 -5 -6 -7 -6 -6 -6 -6 -6 -6 -6 -6 -5 -6 -5 -5 -5 -5
-2 -3 -4 -6 -7 -7 -7 -7 -7 -7 -6 -6 -7 -6 -7 -7 -7 -7 -6 -5 -5 -5 -5 -5 -5 -5 -6 -6 -7 -7 -7 -7 -7 -7 -7 -6 -7 -7 -6 -6 -6 -6 -5
-2 -3 -3 -4 -5 -7 -8 -8 -8 -8 -8 -8 -8 -8 -8 -8 -8 -7 -7 -6 -5 -5 -6 -6 -6 -6 -7 -7 -7 -8 -9 -9 -8 -8 -8 -8 -8 -8 -7 -8 -8 -7 -7
-4 -4 -4 -4 -4 -4 -5 -7 -9 -9 -9 -9 -9 -9 -9 -8 -8 -8 -7 -6 -6 -6 -6 -7 -7 -7 -8 -8 -8 -9 -10 -10 -9 -9 -10 -10 -9 -9 -9 -8 -9 -9 -9
-5 -5 -5 -5 -5 -5 -5 -5 -6 -6 -8 -9 -9 -9 -9 -9 -8 -7 -6 -7 -7 -7 -8 -8 -8 -8 -9 -9 -10 -10 -11 -11 -11 -10 -11 -11 -10 -10 -10 -10 -10 -10 -10
-6 -6 -6 -6 -6 -6 -5 -6 -6 -6 -7 -8 -9 -9 -8 -8 -9 -9 -8 -8 -8 -8 -9 -9 -10 -10 -10 -11 -11 -11 -11 -12 -12 -11 -12 -12 -12 -11 -11 -11 -11 -10 -10
-6 -6 -5 -5 -5 -5 -5 -6 -6 -7 -8 -10 -11 -11 -9 -9 -9 -10 -10 -10 -10 -10 -10 -11 -11 -12 -12 -12 -12 -12 -12 -13 -13 -13 -13 -13 -13 -12 -12 -12 -11 -11 -11
-5 -6 -5 -6 -6 -6 -6 -6 -7 -7 -9 -11 -12 -11 -10 -9 -10 -11 -12 -12 -12 -12 -12 -12 -13 -13 -13 -13 -13 -14 -14 -14 -15 -15 -15 -15 -14 -13 -13 -13 -12 -12 -12
-6 -6 -6 -7 -7 -7 -7 -7 -8 -8 -8 -9 -11 -11 -11 -11 -11 -12 -13 -13 -13 -14 -14 -14 -14 -15 -15 -15 -15 -15 -16 -16 -17 -17 -17 -16 -15 -15 -14 -14 -13 -13 -14
-7 -7 -7 -8 -8 -8 -8 -9 -9 -9 -9 -10 -10 -11 -12 -12 -13 -13 -14 -14 -15 -15 -15 -16 -16 -16 -16 -16 -16 -17 -17 -18 -18 -19 -18 -17 -17 -16 -16 -16 -15 -15 -15
-8 -8 -8 -9 -9 -9 -9 -10 -10 -10 -10 -11 -11 -12 -12 -13 -13 -14 -15 -15 -16 -16 -16 -17 -17 -18 -18 -18 -18 -18 -18 -18 -19 -20 -19 -18 -18 -17 -17 -16 -16 -16 -15
-10 -9 -9 -10 -10 -10 -10 -10 -11 -11 -11 -12 -12 -12 -13 -13 -14 -14 -15 -16 -17 -17 -17 -17 -17 -18 -18 -19 -19 -19 -19 -19 -19 -19 -19 -19 -18 -17 -17 -17 -17 -17 -16
-11 -11 -11 -11 -11 -11 -11 -11 -11 -12 -12 -13 -13 -13 -14 -14 -14 -15 -16 -16 -17 -17 -17 -17 -18 -18 -18 -19 -19 -19 -19 -20 -21 -20 -19 -19 -19 -19 -18 -19 -18 -18 -17

GFSGL_925_temp_087.txt.gz
Temp
19 18 18 17 18 17 16 15 15 14 13 13 12 12 13 13 13 12 12 12 12 12 13 13 13 14 15 15 14 14 14 13 11 12 13 13 14 15 16 16 16 16 16
17 17 17 17 17 16 16 15 15 14 14 13 13 12 12 12 13 12 12 12 12 13 13 13 13 14 14 15 15 14 13 13 12 11 12 13 13 14 15 15 15 16 16
15 16 15 16 16 15 15 15 14 14 14 13 13 12 12 12 12 12 13 13 13 13 13 13 13 13 13 13 13 12 11 11 11 11 12 12 13 13 14 15 15 15 14
12 12 13 12 13 14 14 13 13 13 12 12 12 12 12 12 11 12 12 12 12 12 12 12 12 12 12 12 11 11 10 10 11 11 11 12 12 12 12 12 12 12 12
8 10 9 10 11 12 12 12 12 12 11 10 10 10 10 11 11 11 11 11 11 11 10 10 10 10 10 10 10 10 10 10 11 11 11 11 11 11 11 9 10 10 10
5 6 6 8 7 8 8 8 9 8 8 8 7 7 7 8 9 10 10 11 10 9 7 6 6 6 6 8 8 8 9 10 9 9 9 8 6 4 5 5 5 6 7
3 4 4 4 4 4 4 3 3 3 4 3 4 4 4 5 6 8 9 8 6 5 4 3 3 4 3 4 4 4 4 5 5 5 2 -0 -0 -0 1 2 2 3 3
1 2 2 2 2 1 1 1 0 -0 0 0 -0 1 2 1 2 4 5 4 3 1 1 2 1 1 3 2 2 2 0 0 0 1 -0 -2 -2 -1 1 -0 -0 -1 -1
-0 0 1 1 1 0 -0 -1 -1 -2 -2 -2 -1 -1 -0 -1 -1 -0 1 -0 -2 -3 -3 -2 -1 -0 -0 1 1 -1 -3 -4 -4 -4 -4 -3 -3 -2 -1 -1 -1 -1 -2
-1 -1 -0 -0 -0 -0 -1 -1 -2 -3 -3 -3 -3 -3 -2 -2 -2 -1 -2 -3 -4 -4 -4 -4 -4 -3 -2 -1 -2 -3 -4 -5 -4 -4 -4 -4 -4 -3 -3 -3 -3 -4 -4
-2 -1 -1 -1 -1 -1 -1 -2 -2 -3 -4 -4 -4 -4 -4 -2 -3 -3 -3 -4 -5 -5 -5 -5 -5 -4 -4 -4 -4 -4 -4 -5 -5 -5 -5 -5 -5 -5 -5 -4 -4 -4 -5
-3 -3 -2 -2 -2 -2 -1 -2 -2 -3 -3 -4 -4 -5 -5 -5 -4 -5 -4 -5 -5 -5 -6 -5 -5 -5 -5 -4 -4 -5 -5 -5 -5 -5 -5 -5 -5 -5 -5 -5 -5 -5 -5
-3 -4 -4 -4 -3 -3 -3 -3 -3 -3 -4 -5 -5 -5 -5 -5 -5 -5 -5 -5 -5 -5 -5 -5 -6 -6 -6 -6 -5 -5 -5 -5 -6 -6 -6 -6 -6 -6 -5 -5 -5 -5 -6
-5 -5 -6 -5 -5 -5 -5 -5 -5 -5 -5 -5 -6 -6 -6 -5 -5 -5 -5 -5 -5 -5 -5 -6 -6 -7 -7 -6 -6 -6 -7 -6 -6 -6 -7 -6 -6 -6 -6 -6 -6 -5 -6
-4 -5 -6 -7 -7 -7 -7 -7 -7 -6 -6 -7 -7 -7 -7 -7 -6 -5 -5 -5 -5 -5 -5 -6 -6 -7 -8 -8 -8 -8 -8 -8 -8 -8 -8 -8 -8 -7 -8 -7 -7 -7 -7
-4 -4 -5 -6 -7 -8 -8 -8 -8 -7 -7 -7 -8 -7 -7 -7 -6 -6 -5 -5 -5 -6 -6 -7 -7 -8 -8 -9 -9 -9 -9 -9 -9 -9 -9 -9 -9 -9 -9 -9 -9 -9 -8
-5 -5 -5 -5 -6 -7 -8 -9 -9 -9 -9 -8 -8 -7 -7 -7 -7 -6 -7 -7 -7 -7 -8 -8 -8 -9 -10 -10 -10 -10 -11 -11 -10 -10 -10 -10 -10 -10 -10 -10 -10 -10 -10
-5 -5 -5 -5 -5 -5 -6 -7 -8 -9 -10 -9 -8 -8 -8 -8 -7 -7 -7 -7 -8 -8 -9 -9 -10 -10 -10 -11 -11 -11 -11 -11 -12 -12 -11 -11 -11 -11 -11 -11 -11 -11 -10
-6 -5 -5 -5 -5 -6 -6 -6 -8 -9 -10 -10 -9 -9 -9 -9 -10 -9 -8 -9 -10 -10 -10 -11 -11 -11 -12 -11 -12 -12 -12 -12 -13 -13 -13 -13 -13 -12 -12 -12 -12 -12 -12
-6 -6 -6 -6 -6 -6 -6 -7 -8 -9 -10 -10 -10 -10 -10 -10 -10 -11 -11 -11 -11 -11 -12 -12 -12 -12 -13 -13 -13 -13 -13 -13 -14 -14 -14 -14 -14 -13 -13 -13 -13 -13 -13
-6 -6 -6 -6 -6 -7 -7 -7 -8 -9 -10 -10 -11 -10 -10 -11 -12 -12 -12 -12 -12 -13 -13 -13 -13 -13 -14 -14 -14 -15 -15 -15 -16 -16 -16 -15 -15 -15 -14 -14 -14 -14 -14
-7 -7 -7 -7 -7 -7 -8 -8 -9 -10 -10 -10 -11 -11 -11 -12 -13 -13 -14 -14 -14 -14 -14 -15 -15 -15 -15 -16 -16 -16 -16 -16 -16 -17 -17 -16 -16 -16 -16 -15 -15 -15 -15
-7 -8 -8 -8 -8 -8 -9 -9 -10 -10 -10 -11 -11 -12 -12 -13 -13 -14 -14 -15 -15 -15 -15 -16 -16 -16 -16 -17 -17 -17 -17 -18 -18 -18 -18 -17 -17 -17 -17 -16 -16 -16 -16
-9 -9 -9 -9 -9 -10 -10 -10 -10 -11 -11 -12 -12 -12 -13 -13 -14 -14 -15 -15 -16 -17 -17 -17 -17 -17 -17 -18 -18 -18 -18 -18 -18 -18 -18 -18 -18 -18 -17 -17 -17 -17 -16
-10 -10 -10 -10 -10 -10 -11 -11 -11 -11 -12 -12 -13 -13 -13 -14 -14 -15 -15 -16 -16 -17 -17 -17 -18 -18 -18 -18 -19 -19 -19 -19 -19 -18 -18 -19 -19 -19 -19 -18 -18 -18 -17
-11 -12 -12 -12 -12 -12 -12 -12 -12 -12 -13 -13 -13 -14 -14 -14 -15 -16 -16 -16 -17 -17 -17 -18 -18 -18 -19 -19 -19 -19 -19 -19 -19 -19 -19 -19 -19 -19 -19 -19 -19 -19 -18

GFSGL_925_temp_090.txt.gz
Temp
15 16 17 16 16 17 16 16 16 15 13 13 12 12 13 13 13 13 13 13 13 13 12 13 13 13 14 14 15 15 15 15 12 13 14 15 15 14 14 14 15 15 15
14 16 16 17 16 16 16 16 16 14 13 13 12 12 12 13 13 12 12 12 13 12 12 13 12 13 13 13 13 13 13 13 13 12 12 13 14 13 13 13 15 14 14
14 15 16 16 16 16 16 16 15 14 13 13 12 12 12 12 12 12 12 12 12 12 12 12 12 12 12 12 12 12 12 12 12 11 11 12 12 12 13 13 13 13 13
11 12 13 14 14 14 14 14 13 13 13 13 12 12 12 12 12 12 12 12 12 12 12 12 12 12 12 12 12 12 12 12 12 10 10 11 11 12 12 12 12 11 11
7 8 9 12 13 13 13 12 12 12 11 11 11 11 11 11 11 11 12 12 12 11 11 11 11 12 12 11 11 11 11 10 10 10 10 10 11 11 9 8 9 8 7
4 4 5 7 9 9 10 9 9 9 8 8 7 7 8 9 9 10 11 11 10 10 9 8 8 9 10 10 10 10 10 9 10 10 10 8 5 4 4 5 5 6 6
3 3 2 3 3 3 4 5 5 4 4 4 4 5 4 4 7 8 10 8 7 6 6 5 5 5 6 6 5 6 6 7 8 7 4 2 1 2 2 2 2 3 1
1 1 1 1 0 0 0 0 0 1 1 1 1 1 1 1 3 5 6 4 3 2 2 2 3 2 3 3 3 3 2 2 2 2 1 -1 -1 0 1 1 0 -0 -1
-1 -1 -0 0 -0 -1 -2 -2 -2 -2 -2 -1 -1 -1 -1 -1 -0 1 3 0 -1 -1 -0 1 1 0 0 1 2 -0 -2 -4 -4 -3 -3 -2 -2 -1 0 -0 -1 -1 -3
-2 -2 -1 -1 -1 -1 -2 -3 -3 -3 -3 -3 -3 -2 -2 -2 -2 -1 -0 -1 -3 -4 -3 -2 -1 -1 -1 -1 -0 -2 -4 -5 -4 -3 -3 -3 -3 -2 -1 -1 -1 -2 -3
-3 -2 -2 -2 -2 -2 -2 -3 -3 -4 -3 -4 -4 -4 -4 -4 -3 -3 -2 -3 -4 -4 -4 -4 -4 -4 -3 -3 -3 -3 -4 -4 -5 -4 -4 -4 -4 -4 -4 -4 -4 -3 -5
-3 -3 -3 -3 -2 -2 -3 -3 -3 -4 -4 -4 -5 -5 -5 -5 -4 -4 -4 -4 -4 -5 -5 -5 -5 -5 -5 -5 -5 -5 -5 -5 -5 -5 -5 -5 -5 -5 -5 -5 -5 -5 -6
-4 -5 -4 -3 -3 -3 -3 -4 -4 -4 -5 -5 -5 -5 -5 -5 -5 -5 -5 -5 -5 -5 -5 -6 -6 -6 -6 -6 -5 -5 -5 -5 -6 -6 -6 -6 -6 -6 -5 -5 -6 -6 -6
-5 -6 -6 -5 -5 -5 -5 -5 -5 -5 -5 -6 -6 -6 -5 -5 -5 -5 -5 -5 -6 -6 -6 -7 -6 -6 -6 -7 -6 -6 -6 -6 -7 -7 -7 -7 -7 -6 -6 -6 -6 -6 -7
-6 -6 -7 -7 -7 -7 -7 -7 -7 -6 -6 -7 -7 -6 -6 -5 -5 -5 -5 -5 -6 -6 -7 -8 -8 -8 -9 -9 -8 -8 -8 -8 -8 -8 -8 -8 -8 -8 -8 -8 -8 -7 -8
-5 -6 -7 -7 -8 -8 -8 -7 -7 -7 -7 -7 -6 -6 -6 -6 -5 -5 -6 -6 -6 -6 -7 -9 -9 -10 -10 -10 -10 -10 -10 -10 -10 -9 -9 -9 -10 -10 -10 -9 -9 -9 -9
-5 -5 -6 -6 -7 -8 -8 -9 -9 -8 -7 -7 -7 -6 -6 -6 -6 -7 -7 -7 -7 -6 -8 -9 -10 -10 -11 -11 -11 -11 -11 -11 -11 -11 -11 -11 -11 -11 -11 -11 -11 -10 -10
-5 -5 -5 -6 -6 -7 -8 -9 -9 -9 -9 -9 -8 -8 -8 -7 -8 -8 -7 -7 -8 -9 -10 -10 -11 -11 -11 -11 -12 -12 -12 -12 -12 -12 -12 -12 -12 -12 -12 -12 -12 -12 -12
-6 -5 -5 -6 -6 -6 -8 -9 -9 -9 -9 -9 -9 -9 -9 -10 -10 -8 -8 -9 -10 -11 -11 -11 -12 -12 -12 -12 -12 -12 -12 -13 -13 -13 -13 -13 -13 -13 -13 -13 -13 -13 -13
-6 -6 -6 -6 -6 -7 -8 -9 -9 -10 -10 -10 -10 -10 -10 -9 -10 -11 -11 -11 -11 -12 -12 -13 -13 -13 -13 -13 -13 -13 -13 -14 -14 -14 -14 -14 -14 -14 -14 -14 -14 -14 -14
-6 -6 -6 -6 -7 -7 -8 -9 -10 -11 -11 -10 -11 -11 -10 -11 -12 -12 -13 -13 -13 -13 -13 -14 -14 -14 -14 -14 -14 -14 -15 -15 -16 -16 -16 -16 -15 -15 -15 -15 -15 -15 -15
-7 -7 -7 -7 -8 -8 -9 -9 -10 -10 -11 -11 -12 -12 -12 -12 -13 -13 -14 -14 -14 -14 -15 -15 -15 -15 -15 -15 -16 -16 -16 -16 -17 -17 -17 -17 -16 -16 -16 -16 -16 -16 -16
-8 -8 -8 -8 -9 -9 -9 -10 -10 -10 -11 -11 -12 -12 -13 -13 -14 -14 -15 -15 -15 -15 -16 -16 -16 -16 -17 -17 -17 -17 -17 -17 -17 -17 -17 -17 -17 -17 -17 -17 -17 -16 -16
-9 -9 -9 -10 -10 -10 -10 -10 -11 -11 -12 -12 -12 -13 -13 -14 -14 -15 -15 -16 -16 -16 -17 -17 -17 -17 -18 -18 -18 -18 -18 -18 -18 -18 -17 -18 -18 -18 -18 -18 -18 -17 -17
-10 -10 -10 -11 -11 -11 -11 -11 -12 -12 -12 -13 -13 -13 -14 -14 -14 -15 -15 -16 -16 -17 -17 -18 -18 -18 -18 -18 -19 -19 -19 -19 -19 -19 -18 -18 -19 -19 -19 -19 -19 -18 -18
-12 -12 -12 -12 -12 -12 -12 -12 -13 -13 -13 -13 -14 -14 -14 -15 -15 -16 -16 -16 -17 -17 -17 -18 -18 -19 -19 -19 -19 -19 -19 -19 -20 -20 -19 -19 -19 -19 -19 -20 -19 -19 -19

GFSGL_925_temp_093.txt.gz
Temp
14 14 14 14 15 16 16 15 15 15 15 14 14 13 13 13 13 12 13 13 13 13 13 12 12 13 13 13 14 14 14 16 12 12 13 13 13 14 14 14 14 14 14
15 14 14 15 15 15 15 15 15 15 14 14 13 12 12 12 13 13 13 12 13 13 12 12 12 12 12 13 13 13 13 14 14 12 13 13 14 14 14 14 14 14 13
13 14 13 14 14 15 15 15 14 14 13 13 13 12 12 12 13 12 12 12 12 13 13 12 12 12 12 13 13 12 13 12 13 13 12 13 13 13 13 13 13 12 11
7 12 13 13 14 14 14 13 13 13 13 12 12 12 12 12 12 12 12 12 12 12 12 12 13 12 12 12 12 12 12 11 11 11 11 11 11 11 11 11 11 10 9
4 6 8 8 11 13 13 13 12 12 12 12 11 11 11 11 11 12 12 12 12 12 12 11 12 12 12 12 12 11 10 10 10 10 10 10 10 10 10 9 9 8 5
2 2 3 4 4 7 8 9 9 9 9 10 9 9 8 8 9 11 11 11 11 11 10 10 10 11 11 11 11 11 11 10 10 10 10 10 7 7 7 7 7 6 4
1 1 0 1 1 1 3 3 4 5 5 6 5 6 5 4 6 8 10 10 9 7 7 7 6 6 7 8 9 9 9 10 9 9 8 5 3 3 3 3 3 4 1
-1 0 0 0 -0 -0 -0 -0 -0 1 1 1 2 2 2 -0 2 5 6 6 5 4 4 4 4 3 4 5 5 5 3 4 4 5 4 2 2 2 2 2 2 1 -1
-2 -2 -1 -1 -0 -1 -2 -2 -2 -2 -2 -2 -2 -1 -0 -1 -0 1 2 2 1 -0 1 1 1 1 1 2 3 0 -2 -4 -3 -1 -1 -1 -0 1 1 1 -0 -0 -3
-3 -3 -2 -2 -2 -2 -2 -2 -2 -2 -3 -3 -3 -3 -3 -3 -1 0 0 -1 -2 -2 -2 -2 -1 -1 -1 -1 -0 -1 -3 -4 -4 -4 -3 -2 -2 -2 -1 -0 -1 -1 -4
-3 -3 -2 -3 -3 -3 -3 -3 -3 -3 -3 -3 -4 -4 -4 -3 -3 -2 -2 -1 -3 -3 -3 -4 -4 -3 -2 -2 -2 -3 -5 -5 -4 -4 -4 -4 -3 -3 -3 -2 -2 -2 -4
-4 -4 -4 -3 -3 -3 -4 -4 -4 -4 -4 -4 -4 -4 -4 -4 -4 -4 -3 -3 -4 -4 -5 -4 -4 -5 -5 -5 -4 -5 -5 -4 -4 -4 -4 -5 -5 -5 -5 -5 -5 -5 -6
-4 -5 -5 -4 -4 -4 -4 -4 -5 -5 -5 -5 -5 -5 -5 -5 -5 -5 -4 -4 -4 -5 -6 -6 -6 -6 -5 -5 -5 -5 -5 -5 -5 -6 -6 -6 -6 -6 -6 -6 -6 -6 -7
-5 -6 -6 -6 -5 -5 -5 -5 -5 -6 -6 -6 -5 -5 -5 -5 -5 -5 -6 -6 -6 -6 -5 -5 -6 -6 -6 -6 -6 -6 -6 -6 -7 -7 -7 -7 -7 -6 -6 -6 -7 -7 -7
-6 -6 -6 -7 -7 -6 -6 -6 -6 -6 -6 -6 -6 -5 -5 -5 -5 -5 -5 -6 -6 -7 -7 -7 -7 -7 -8 -8 -8 -8 -8 -8 -8 -8 -8 -8 -8 -8 -8 -8 -8 -7 -9
-5 -6 -7 -7 -7 -7 -7 -6 -6 -6 -6 -6 -6 -5 -5 -5 -5 -6 -6 -7 -7 -7 -7 -9 -10 -10 -10 -10 -10 -10 -10 -9 -10 -10 -10 -10 -10 -10 -10 -10 -9 -9 -10
-5 -5 -6 -7 -8 -8 -8 -8 -8 -7 -7 -7 -6 -6 -6 -6 -7 -7 -8 -8 -8 -7 -9 -10 -11 -11 -11 -11 -11 -11 -12 -12 -11 -11 -11 -11 -11 -11 -11 -11 -11 -11 -11
-6 -5 -6 -7 -7 -8 -8 -8 -8 -8 -9 -8 -8 -8 -7 -8 -8 -9 -8 -7 -9 -10 -10 -11 -11 -11 -12 -12 -12 -12 -12 -12 -12 -12 -12 -12 -12 -12 -12 -12 -12 -12 -12
-6 -6 -6 -6 -7 -8 -8 -8 -9 -9 -9 -9 -9 -9 -10 -10 -10 -8 -8 -9 -11 -11 -12 -12 -12 -12 -12 -12 -13 -13 -13 -13 -14 -13 -13 -13 -13 -13 -13 -13 -13 -13 -13
-6 -6 -6 -6 -7 -8 -8 -9 -9 -10 -10 -10 -10 -10 -10 -9 -10 -11 -11 -11 -12 -12 -12 -13 -13 -13 -13 -13 -14 -14 -14 -14 -14 -14 -15 -14 -14 -14 -14 -14 -14 -14 -14
-7 -7 -7 -7 -7 -8 -9 -9 -10 -10 -11 -11 -11 -11 -11 -11 -12 -13 -13 -13 -13 -13 -13 -13 -14 -14 -14 -14 -15 -15 -15 -16 -16 -16 -16 -16 -15 -15 -15 -15 -15 -15 -15
-7 -7 -8 -8 -8 -8 -9 -10 -10 -11 -11 -11 -12 -12 -12 -12 -13 -14 -14 -14 -14 -14 -15 -15 -15 -15 -16 -16 -16 -16 -16 -17 -17 -17 -17 -17 -16 -16 -16 -16 -16 -16 -16
-8 -8 -8 -9 -9 -9 -9 -10 -10 -11 -11 -12 -12 -12 -13 -13 -14 -14 -15 -15 -15 -16 -16 -16 -16 -16 -17 -17 -17 -17 -17 -17 -17 -17 -17 -17 -17 -17 -17 -17 -17 -17 -17
-9 -9 -9 -10 -10 -10 -10 -10 -11 -11 -12 -12 -12 -13 -13 -14 -14 -15 -15 -16 -16 -17 -17 -17 -17 -17 -18 -18 -18 -18 -18 -18 -18 -18 -17 -17 -18 -18 -18 -18 -18 -18 -18
-11 -11 -11 -11 -11 -11 -11 -11 -12 -12 -12 -13 -13 -13 -14 -14 -15 -15 -16 -16 -17 -17 -17 -18 -18 -18 -18 -18 -19 -19 -19 -19 -19 -19 -18 -18 -19 -19 -19 -19 -19 -19 -19
-12 -12 -12 -12 -12 -12 -12 -12 -12 -13 -13 -13 -14 -14 -14 -15 -15 -16 -16 -16 -17 -17 -17 -18 -18 -18 -19 -19 -19 -19 -19 -20 -20 -20 -19 -19 -19 -19 -19 -20 -20 -20 -20

GFSGL_925_temp_096.txt.gz
Temp
14 14 14 14 14 14 14 13 14 14 13 14 14 14 14 14 13 13 13 13 13 13 13 13 12 12 11 11 11 12 12 13 13 12 13 13 15 15 14 14 14 14 13
11 14 14 14 15 17 13 14 14 15 14 14 14 13 13 12 13 12 12 13 12 12 13 13 12 12 11 11 11 12 12 12 13 11 12 12 13 12 13 13 12 12 12
8 12 13 14 13 13 14 14 14 14 13 13 13 12 12 12 12 12 12 13 12 13 13 13 12 12 11 11 11 11 12 13 13 12 11 12 12 12 12 12 11 11 10
4 5 7 9 13 13 13 13 13 13 13 12 12 11 11 12 12 12 12 12 12 12 12 12 12 12 11 11 11 12 12 11 12 12 11 11 11 11 11 11 9 8 7
2 2 2 4 8 9 12 13 13 12 11 11 11 10 11 11 12 12 12 12 12 12 12 12 12 12 12 12 12 11 12 11 10 11 10 10 10 10 10 10 9 7 4
1 1 1 2 3 3 3 9 10 9 9 9 9 9 9 9 10 11 11 11 11 11 11 10 10 11 11 11 11 11 11 10 10 10 10 10 9 9 9 8 6 4 3
-1 -0 0 1 1 2 1 2 4 4 5 5 5 5 4 5 7 9 10 9 8 7 7 7 8 7 9 10 10 11 10 10 10 10 10 8 7 7 7 6 6 5 1
-2 -1 -1 -0 0 2 0 -2 -1 0 0 0 0 0 1 1 3 6 7 5 4 3 3 4 4 4 5 7 6 6 4 5 6 6 6 3 4 4 4 4 4 2 -1
-3 -3 -2 -1 -1 -1 -1 -1 -2 -2 -2 -2 -2 -2 -2 -1 1 2 4 3 1 0 0 1 1 1 1 3 4 0 -3 -4 -3 -0 -1 0 0 1 2 2 1 0 -3
-4 -4 -3 -3 -3 -2 -3 -3 -3 -2 -3 -2 -3 -3 -3 -3 -1 0 1 -0 -1 -2 -2 -2 -1 -1 -1 -0 1 -1 -4 -5 -3 -2 -2 -1 -1 -1 -0 0 -0 -1 -4
-4 -4 -4 -4 -4 -4 -4 -4 -4 -4 -4 -4 -4 -4 -3 -3 -3 -2 -1 -2 -3 -3 -4 -4 -4 -3 -2 -2 -1 -2 -4 -4 -4 -3 -4 -4 -3 -3 -2 -2 -2 -2 -4
-4 -4 -5 -5 -4 -4 -4 -4 -4 -4 -4 -4 -4 -5 -5 -4 -4 -4 -3 -3 -4 -4 -5 -5 -5 -6 -6 -6 -5 -5 -5 -4 -4 -5 -5 -5 -5 -5 -5 -5 -5 -4 -5
-5 -6 -5 -5 -5 -5 -4 -5 -5 -5 -5 -5 -5 -5 -5 -5 -6 -5 -5 -4 -4 -5 -6 -6 -6 -5 -6 -6 -6 -6 -4 -4 -5 -6 -8 -7 -7 -7 -6 -6 -6 -6 -6
-6 -7 -7 -6 -6 -5 -6 -5 -5 -5 -5 -5 -5 -5 -5 -5 -6 -6 -6 -6 -6 -6 -6 -6 -6 -7 -6 -7 -6 -6 -6 -6 -7 -8 -8 -7 -7 -7 -7 -7 -7 -7 -7
-6 -6 -7 -7 -7 -6 -6 -6 -6 -6 -5 -5 -5 -5 -5 -5 -6 -6 -5 -6 -6 -6 -6 -6 -7 -7 -8 -8 -8 -8 -8 -8 -9 -9 -9 -9 -8 -8 -9 -8 -8 -8 -9
-6 -6 -7 -7 -7 -7 -7 -7 -7 -6 -6 -5 -5 -5 -6 -6 -6 -6 -7 -7 -6 -6 -7 -9 -10 -10 -10 -11 -11 -11 -10 -10 -10 -10 -10 -10 -10 -10 -10 -9 -9 -10 -11
-6 -6 -7 -7 -7 -8 -7 -8 -8 -7 -7 -7 -6 -7 -7 -7 -7 -8 -8 -7 -8 -7 -9 -11 -11 -11 -11 -11 -12 -12 -12 -12 -11 -11 -11 -11 -11 -11 -11 -11 -11 -11 -12
-6 -6 -6 -7 -8 -8 -8 -8 -8 -8 -9 -9 -8 -9 -8 -9 -9 -9 -7 -7 -9 -10 -10 -11 -12 -12 -12 -12 -12 -12 -12 -12 -12 -12 -12 -12 -12 -12 -12 -12 -12 -12 -13
-6 -6 -7 -7 -8 -8 -8 -9 -9 -9 -10 -10 -9 -9 -10 -11 -10 -9 -8 -9 -11 -12 -12 -12 -12 -12 -12 -13 -13 -13 -13 -13 -13 -13 -13 -13 -13 -13 -13 -13 -13 -14 -14
-6 -7 -7 -7 -8 -8 -8 -9 -10 -10 -10 -11 -11 -11 -10 -9 -10 -11 -11 -11 -12 -12 -13 -13 -13 -13 -13 -14 -14 -14 -14 -14 -15 -14 -14 -14 -14 -14 -14 -14 -14 -15 -15
-7 -7 -7 -7 -8 -8 -9 -10 -10 -11 -11 -12 -12 -12 -11 -11 -13 -13 -13 -13 -13 -13 -13 -14 -14 -14 -14 -15 -15 -15 -15 -15 -15 -16 -16 -16 -15 -15 -15 -15 -15 -15 -16
-8 -8 -8 -8 -9 -9 -9 -10 -10 -11 -11 -12 -12 -13 -12 -13 -13 -14 -14 -14 -14 -15 -15 -15 -15 -15 -16 -16 -16 -16 -16 -16 -16 -16 -17 -16 -16 -16 -16 -16 -16 -16 -16
-9 -9 -9 -9 -9 -10 -10 -10 -11 -11 -11 -12 -12 -13 -13 -14 -14 -15 -15 -15 -16 -16 -16 -16 -16 -16 -17 -17 -17 -17 -17 -17 -17 -17 -17 -17 -17 -17 -17 -17 -17 -17 -17
-11 -10 -11 -11 -10 -10 -10 -11 -11 -12 -12 -12 -13 -13 -14 -14 -14 -15 -15 -16 -17 -17 -17 -17 -17 -18 -18 -18 -18 -18 -18 -18 -18 -18 -17 -18 -18 -18 -18 -18 -18 -18 -18
-12 -12 -12 -12 -12 -12 -12 -12 -12 -12 -12 -13 -13 -14 -14 -14 -15 -15 -16 -16 -17 -17 -18 -18 -18 -18 -18 -19 -19 -19 -19 -19 -19 -19 -19 -18 -19 -19 -19 -19 -19 -19 -19
-13 -13 -13 -13 -13 -13 -13 -13 -13 -13 -13 -13 -14 -14 -14 -15 -15 -16 -16 -16 -17 -17 -18 -18 -18 -18 -19 -19 -19 -19 -19 -20 -20 -20 -20 -19 -19 -20 -20 -20 -20 -20 -20

GFSGL_925_temp_099.txt.gz
Temp
6 13 14 14 14 14 14 14 14 14 16 13 13 14 14 13 13 13 13 13 13 13 13 13 13 13 12 12 12 12 12 12 12 11 13 13 14 13 13 14 13 13 13
4 8 13 13 13 13 14 13 13 16 15 13 12 12 13 13 14 13 13 13 13 13 13 13 13 13 12 12 11 11 11 12 12 11 11 12 12 12 12 11 11 11 12
3 5 7 10 12 13 13 13 13 13 14 12 12 13 13 13 13 13 12 12 12 13 13 12 13 12 12 12 11 11 11 12 12 12 11 12 11 11 11 10 11 11 10
2 2 3 4 7 10 13 13 13 13 13 12 12 13 12 12 12 12 12 12 12 12 12 12 12 12 12 12 11 11 11 11 11 12 12 11 12 10 11 9 8 8 7
0 1 1 2 4 5 9 11 12 13 13 12 12 11 11 11 11 12 12 12 12 12 12 12 12 12 12 12 11 11 11 11 11 11 11 11 10 10 10 9 7 5 4
-1 -0 0 1 1 3 2 7 4 9 9 10 10 9 9 9 10 11 11 11 11 10 10 10 11 12 11 11 11 11 11 11 11 11 11 11 10 10 10 9 7 3 3
-2 -2 -1 -0 0 1 2 1 2 0 5 4 4 5 5 6 6 9 10 10 8 7 6 6 7 7 8 10 10 11 11 11 11 11 10 10 10 10 10 8 7 5 1
-3 -3 -2 -2 -1 -0 1 1 1 -1 -1 -0 0 1 1 1 3 4 7 6 5 4 4 4 4 4 5 5 9 8 6 7 8 9 10 8 8 8 7 7 6 3 -0
-4 -4 -3 -3 -3 -2 -1 -1 -0 -1 -3 -3 -2 -2 -1 -1 0 1 2 3 1 0 1 1 2 2 2 4 5 3 1 -1 -1 2 2 3 2 3 4 5 2 1 -2
-5 -4 -4 -4 -4 -4 -3 -3 -2 -2 -3 -3 -3 -3 -3 -2 -1 -0 -0 -1 -2 -2 -2 -2 -1 -1 0 2 1 -1 -4 -5 -2 -2 -1 -0 0 0 1 2 2 1 -2
-5 -5 -5 -5 -4 -4 -4 -4 -4 -4 -4 -4 -5 -5 -4 -4 -4 -3 -2 -2 -3 -4 -4 -4 -4 -3 -2 -2 -1 -3 -5 -4 -4 -3 -4 -3 -2 -2 -1 -0 -0 -0 -2
-6 -6 -6 -5 -5 -5 -4 -4 -4 -4 -4 -4 -5 -5 -5 -6 -5 -5 -5 -4 -4 -5 -5 -5 -5 -5 -5 -5 -5 -6 -6 -6 -6 -6 -7 -7 -7 -6 -5 -3 -3 -3 -4
-6 -6 -6 -6 -6 -5 -5 -5 -4 -4 -4 -4 -4 -4 -5 -6 -6 -6 -5 -5 -6 -7 -7 -7 -7 -7 -6 -6 -5 -5 -5 -6 -7 -8 -9 -9 -8 -7 -7 -6 -6 -5 -6
-5 -5 -6 -6 -6 -5 -5 -5 -4 -4 -4 -4 -3 -4 -5 -5 -6 -6 -6 -6 -6 -6 -6 -7 -7 -7 -7 -7 -7 -7 -7 -7 -8 -8 -9 -9 -8 -8 -8 -8 -8 -8 -7
-5 -5 -5 -6 -6 -6 -6 -5 -5 -5 -5 -4 -5 -4 -4 -5 -6 -6 -5 -6 -6 -7 -7 -8 -8 -8 -9 -9 -9 -9 -9 -8 -9 -9 -9 -9 -9 -9 -9 -9 -9 -9 -9
-4 -5 -6 -6 -6 -6 -6 -6 -7 -6 -6 -6 -6 -6 -6 -6 -7 -7 -7 -6 -6 -6 -7 -8 -8 -9 -9 -9 -10 -10 -10 -10 -10 -10 -10 -10 -10 -10 -10 -10 -10 -9 -9
-6 -6 -6 -7 -7 -7 -7 -7 -6 -8 -8 -8 -7 -7 -7 -7 -8 -8 -9 -8 -8 -8 -9 -9 -9 -9 -10 -10 -11 -11 -11 -12 -11 -11 -11 -11 -11 -11 -10 -10 -10 -10 -11
-7 -7 -8 -8 -8 -8 -8 -8 -8 -8 -8 -9 -11 -10 -9 -9 -9 -9 -9 -8 -9 -10 -10 -10 -10 -11 -11 -12 -12 -12 -13 -13 -13 -12 -12 -12 -11 -11 -11 -11 -11 -11 -10
-7 -8 -8 -8 -8 -9 -9 -9 -9 -9 -9 -10 -10 -10 -10 -11 -10 -9 -9 -10 -10 -11 -11 -12 -12 -12 -13 -13 -14 -14 -13 -13 -13 -13 -13 -13 -12 -12 -12 -12 -13 -13 -12
-8 -8 -8 -8 -9 -9 -9 -9 -9 -10 -10 -11 -11 -11 -11 -10 -11 -12 -12 -12 -12 -12 -12 -13 -13 -14 -14 -14 -14 -14 -15 -15 -15 -15 -15 -15 -14 -13 -13 -13 -13 -13 -13
-9 -9 -8 -9 -9 -9 -10 -10 -10 -10 -11 -11 -12 -12 -12 -12 -13 -13 -13 -13 -13 -14 -14 -14 -14 -15 -15 -15 -15 -15 -15 -16 -16 -16 -16 -15 -15 -15 -15 -14 -14 -14 -14
-10 -9 -9 -9 -10 -10 -10 -10 -10 -11 -11 -12 -13 -13 -13 -14 -14 -14 -15 -15 -15 -15 -15 -15 -16 -16 -16 -16 -16 -16 -16 -16 -16 -17 -17 -16 -16 -16 -16 -16 -16 -16 -15
-11 -11 -10 -10 -10 -11 -11 -11 -11 -11 -12 -12 -13 -13 -14 -14 -15 -15 -16 -16 -16 -16 -16 -16 -16 -16 -16 -16 -16 -17 -17 -17 -16 -16 -17 -17 -17 -17 -16 -16 -16 -16 -16
-12 -12 -12 -12 -12 -12 -12 -12 -12 -12 -13 -13 -13 -14 -14 -15 -15 -16 -16 -16 -17 -17 -17 -17 -17 -17 -18 -18 -18 -18 -18 -18 -18 -17 -17 -18 -18 -18 -18 -17 -17 -18 -18
-14 -13 -13 -14 -14 -13 -13 -13 -13 -13 -13 -13 -14 -14 -14 -15 -15 -15 -16 -16 -17 -17 -18 -18 -18 -18 -18 -19 -19 -19 -19 -19 -19 -18 -18 -18 -18 -18 -19 -19 -18 -18 -19
-14 -14 -14 -14 -14 -14 -14 -14 -14 -14 -14 -14 -14 -15 -15 -15 -16 -16 -16 -16 -17 -17 -18 -18 -18 -19 -19 -19 -19 -19 -19 -19 -20 -19 -19 -19 -19 -20 -20 -20 -19 -19 -19

GFSGL_925_temp_102.txt.gz
Temp
3 5 7 14 15 15 15 15 15 15 15 15 15 14 14 14 14 14 14 14 14 14 13 14 14 13 13 13 13 14 14 15 13 11 12 12 11 12 12 12 13 13 13
2 3 5 8 11 14 14 14 14 14 14 14 15 14 14 14 14 14 14 14 14 13 13 13 13 13 13 13 13 13 13 13 13 12 11 11 12 12 12 13 14 11 12
0 2 3 3 5 9 13 14 14 14 14 13 13 15 15 14 14 13 14 14 13 13 13 13 13 13 13 13 13 12 12 12 12 12 11 11 12 13 13 12 10 10 10
-0 1 2 2 3 4 8 12 13 13 13 13 14 13 13 13 13 13 13 13 13 13 14 13 13 13 13 12 12 12 12 11 11 11 11 11 12 12 11 9 6 6 4
-1 -0 0 1 2 2 6 7 10 13 13 12 12 12 12 12 12 12 12 12 12 12 12 12 12 12 12 12 12 12 11 11 11 11 11 11 12 11 10 8 6 3 2
-2 -2 -1 -0 0 1 2 3 2 6 6 9 10 10 10 10 10 11 12 11 11 11 10 10 10 11 11 12 12 12 11 11 11 11 12 12 11 11 11 9 4 3 2
-3 -2 -2 -2 -1 -0 0 2 1 0 0 0 3 6 6 6 8 10 10 9 9 7 7 6 7 7 7 8 11 11 11 11 11 11 11 11 10 10 10 7 6 5 2
-3 -3 -3 -3 -2 -2 -1 -1 0 0 -0 -0 -1 0 1 1 3 5 6 6 4 3 3 3 3 4 4 5 8 9 7 9 10 11 11 10 10 10 9 9 8 4 1
-3 -3 -3 -4 -3 -3 -3 -2 -2 -2 -0 -3 -3 -2 -1 -1 0 2 3 2 0 -0 0 1 1 2 2 4 4 3 2 1 1 4 7 6 6 7 8 8 4 1 -1
-4 -4 -4 -3 -4 -3 -3 -3 -3 -4 -4 -3 -3 -4 -3 -3 -2 -0 -0 -1 -2 -3 -3 -2 -2 -1 0 1 2 -1 -3 -3 -1 -0 0 1 1 2 2 3 2 1 -2
-4 -4 -4 -4 -3 -3 -3 -3 -3 -3 -4 -4 -5 -5 -5 -4 -4 -3 -2 -3 -4 -4 -4 -4 -4 -3 -2 -2 -1 -2 -4 -4 -3 -2 -3 -2 -1 -1 -0 -0 1 0 -1
-5 -4 -4 -4 -4 -3 -3 -3 -3 -3 -3 -3 -4 -5 -5 -6 -6 -5 -5 -5 -5 -5 -5 -5 -5 -5 -6 -5 -5 -6 -5 -4 -5 -6 -7 -8 -7 -6 -5 -4 -3 -3 -3
-4 -4 -4 -4 -4 -4 -3 -3 -2 -2 -3 -3 -3 -3 -4 -5 -5 -6 -5 -5 -6 -7 -7 -7 -7 -7 -7 -7 -7 -6 -5 -6 -7 -8 -8 -8 -8 -8 -8 -6 -6 -6 -6
-2 -3 -3 -4 -4 -5 -4 -4 -4 -4 -3 -3 -3 -3 -4 -5 -5 -5 -5 -6 -6 -6 -6 -6 -6 -6 -6 -7 -6 -6 -7 -7 -7 -8 -8 -8 -7 -7 -7 -7 -7 -7 -7
-2 -3 -3 -3 -3 -4 -6 -6 -5 -6 -5 -4 -5 -5 -5 -6 -6 -6 -6 -6 -6 -6 -6 -6 -6 -6 -6 -7 -7 -7 -7 -7 -7 -7 -7 -7 -8 -8 -8 -8 -8 -7 -7
-3 -3 -4 -3 -3 -3 -3 -5 -8 -7 -7 -7 -7 -6 -7 -7 -7 -7 -7 -6 -7 -5 -5 -5 -6 -6 -6 -6 -7 -7 -7 -7 -7 -7 -7 -7 -7 -7 -7 -8 -7 -7 -7
-5 -4 -4 -4 -4 -4 -5 -5 -4 -6 -7 -9 -8 -8 -8 -8 -8 -8 -8 -8 -7 -6 -5 -6 -6 -6 -7 -7 -7 -7 -8 -8 -8 -8 -8 -8 -8 -8 -8 -8 -8 -8 -8
-6 -6 -5 -6 -6 -6 -6 -6 -6 -6 -6 -7 -9 -10 -9 -9 -9 -9 -8 -7 -7 -7 -7 -7 -7 -8 -8 -8 -8 -9 -9 -9 -9 -9 -8 -8 -8 -8 -8 -8 -8 -8 -8
-6 -6 -6 -6 -6 -7 -6 -6 -6 -6 -6 -7 -7 -8 -9 -10 -10 -9 -9 -8 -8 -8 -8 -9 -9 -9 -9 -10 -10 -10 -10 -10 -10 -10 -10 -9 -9 -9 -9 -9 -10 -10 -8
-6 -8 -7 -6 -6 -6 -6 -6 -6 -6 -7 -7 -8 -9 -8 -8 -8 -9 -9 -9 -9 -9 -9 -10 -10 -11 -11 -11 -11 -11 -11 -11 -11 -10 -10 -10 -10 -10 -10 -10 -9 -9 -9
-6 -6 -7 -6 -6 -7 -7 -7 -7 -7 -7 -8 -9 -12 -12 -9 -9 -9 -10 -10 -10 -10 -10 -11 -11 -12 -12 -12 -12 -12 -12 -12 -12 -12 -12 -12 -11 -11 -11 -11 -11 -11 -11
-7 -7 -7 -7 -7 -7 -8 -7 -8 -8 -8 -8 -9 -11 -12 -10 -10 -11 -11 -12 -13 -12 -12 -12 -12 -13 -13 -13 -13 -14 -14 -14 -13 -13 -13 -13 -12 -12 -12 -12 -12 -12 -12
-9 -9 -8 -8 -8 -9 -8 -8 -9 -9 -9 -10 -10 -10 -11 -11 -12 -12 -13 -14 -14 -14 -15 -14 -14 -15 -16 -16 -15 -15 -15 -15 -16 -15 -14 -14 -13 -13 -13 -12 -13 -12 -12
-10 -10 -10 -10 -10 -10 -10 -10 -10 -10 -11 -10 -11 -11 -12 -12 -12 -14 -14 -15 -15 -15 -16 -16 -16 -17 -17 -17 -17 -17 -18 -18 -18 -17 -17 -15 -15 -15 -14 -14 -14 -15 -14
-11 -11 -11 -11 -11 -11 -11 -11 -11 -11 -11 -11 -11 -12 -12 -13 -13 -13 -14 -15 -16 -16 -17 -17 -17 -18 -18 -19 -19 -19 -18 -18 -18 -18 -18 -17 -16 -16 -16 -15 -15 -15 -16
-12 -12 -12 -12 -12 -12 -12 -12 -12 -12 -12 -12 -12 -12 -13 -13 -13 -14 -15 -15 -16 -16 -17 -17 -17 -18 -19 -19 -19 -19 -19 -19 -19 -18 -19 -18 -17 -17 -17 -16 -17 -15 -16

GFSGL_925_temp_105.txt.gz
Temp
1 2 3 4 5 9 16 18 18 18 18 18 17 15 15 15 15 15 15 15 16 16 15 15 15 15 14 14 14 14 13 13 13 15 14 13 12 12 12 12 13 13 12
0 1 2 2 4 5 10 13 17 17 18 17 16 16 16 15 14 15 16 15 15 15 15 14 14 14 14 14 14 13 13 13 14 14 13 12 12 12 12 12 12 12 12
-0 -0 1 1 3 3 5 8 14 15 15 16 16 16 16 15 15 16 17 13 15 15 15 14 14 14 14 14 13 13 14 14 14 13 12 12 12 12 12 12 11 11 10
-1 -1 -1 -0 1 2 3 4 6 12 14 14 15 15 15 14 14 14 14 14 14 14 14 14 13 13 13 13 13 13 13 13 13 12 12 12 12 11 11 9 6 7 6
-2 -2 -1 -1 -0 0 1 2 5 6 10 11 14 15 15 14 14 14 13 13 13 13 13 13 13 13 13 13 13 13 13 12 12 12 12 12 12 11 9 8 6 4 3
-2 -2 -2 -2 -2 -1 -0 0 3 2 3 4 6 7 9 10 12 13 13 13 13 13 12 12 11 11 12 12 12 12 12 12 12 12 11 12 12 10 9 7 4 3 2
-2 -2 -2 -3 -2 -2 -2 -1 -0 -0 2 1 0 1 1 5 9 11 12 11 10 9 8 8 8 8 8 9 9 9 11 12 11 11 11 12 11 11 9 6 5 5 2
-2 -3 -3 -3 -2 -2 -3 -3 -3 -2 -1 -1 -1 -1 -1 -0 3 8 10 7 6 4 4 4 4 4 5 5 6 6 7 8 10 11 11 10 11 11 10 8 6 3 1
-3 -3 -3 -2 -2 -2 -2 -3 -4 -4 -4 -4 -2 -2 -2 -2 -1 0 4 3 1 -0 -0 0 1 0 1 3 4 3 2 1 2 5 7 8 10 10 9 8 4 2 -0
-3 -3 -3 -3 -2 -2 -3 -3 -3 -4 -4 -5 -5 -4 -4 -3 -3 -2 -1 -1 -2 -3 -3 -3 -3 -1 -0 1 2 1 -1 -2 -0 0 1 3 4 5 6 6 5 4 -2
-3 -3 -3 -3 -3 -3 -2 -2 -2 -2 -3 -4 -4 -5 -5 -5 -5 -4 -3 -3 -4 -4 -4 -5 -4 -4 -4 -2 -1 -1 -4 -3 -3 -2 -2 -1 -1 -0 1 2 3 2 1
-3 -3 -3 -4 -3 -3 -3 -3 -2 -2 -2 -2 -3 -3 -4 -5 -6 -6 -6 -5 -5 -5 -5 -5 -5 -5 -5 -6 -5 -6 -5 -4 -4 -5 -6 -7 -7 -6 -5 -3 -2 -0 -1
-1 -2 -3 -3 -4 -4 -4 -4 -4 -2 -3 -3 -3 -4 -4 -4 -4 -5 -6 -6 -6 -6 -6 -7 -7 -6 -6 -6 -6 -6 -6 -6 -6 -7 -7 -7 -8 -7 -7 -6 -6 -4 -4
-1 -1 -1 -2 -3 -5 -5 -5 -5 -5 -4 -4 -5 -4 -5 -5 -6 -5 -5 -5 -5 -5 -5 -5 -5 -6 -6 -6 -6 -6 -6 -7 -7 -7 -7 -7 -7 -7 -7 -7 -8 -7 -7
-1 -1 -1 -2 -2 -3 -5 -6 -6 -7 -6 -6 -6 -7 -6 -7 -7 -6 -6 -5 -5 -5 -4 -4 -4 -5 -5 -5 -6 -5 -6 -6 -6 -6 -7 -7 -7 -7 -7 -7 -7 -7 -8
-2 -2 -3 -2 -2 -2 -3 -5 -7 -6 -7 -7 -7 -7 -7 -8 -7 -7 -7 -6 -5 -4 -4 -4 -5 -5 -5 -5 -6 -6 -6 -6 -6 -6 -6 -6 -6 -6 -6 -7 -7 -6 -6
-4 -3 -3 -3 -3 -3 -3 -3 -3 -6 -6 -6 -8 -8 -8 -8 -8 -7 -7 -6 -5 -5 -5 -6 -6 -6 -6 -6 -6 -6 -7 -7 -6 -6 -6 -6 -6 -6 -6 -6 -6 -6 -6
-5 -5 -5 -5 -5 -4 -4 -4 -4 -4 -4 -5 -7 -8 -8 -8 -8 -7 -6 -6 -6 -6 -6 -6 -7 -7 -6 -6 -6 -6 -7 -7 -6 -6 -6 -6 -6 -6 -6 -6 -6 -6 -6
-6 -6 -5 -5 -5 -5 -4 -4 -4 -5 -5 -5 -6 -7 -7 -7 -7 -7 -7 -6 -6 -7 -7 -7 -8 -8 -8 -8 -8 -9 -9 -8 -8 -7 -7 -7 -7 -7 -7 -8 -8 -7 -6
-4 -6 -5 -4 -4 -4 -4 -4 -4 -5 -5 -6 -7 -9 -9 -6 -6 -7 -8 -8 -7 -7 -8 -8 -9 -9 -9 -9 -9 -9 -9 -9 -8 -8 -8 -8 -8 -8 -8 -8 -8 -7 -7
-5 -5 -5 -5 -5 -5 -5 -5 -5 -5 -6 -6 -7 -10 -10 -8 -7 -8 -8 -9 -9 -9 -9 -9 -9 -10 -10 -10 -10 -10 -10 -10 -10 -10 -10 -9 -9 -9 -9 -9 -9 -9 -9
-6 -6 -6 -6 -6 -6 -7 -6 -6 -7 -7 -7 -8 -9 -9 -9 -9 -9 -10 -11 -11 -11 -11 -11 -11 -12 -12 -12 -11 -12 -12 -11 -11 -11 -11 -11 -10 -10 -10 -10 -10 -10 -10
-7 -8 -7 -7 -7 -7 -7 -7 -8 -8 -8 -8 -9 -9 -9 -10 -11 -11 -11 -12 -12 -13 -13 -13 -13 -13 -14 -14 -14 -13 -13 -13 -14 -13 -12 -11 -11 -11 -11 -11 -11 -10 -11
-9 -8 -8 -8 -9 -9 -9 -9 -9 -9 -9 -9 -9 -10 -10 -11 -11 -12 -12 -13 -13 -14 -14 -15 -15 -16 -15 -15 -15 -16 -16 -16 -16 -15 -14 -12 -13 -12 -12 -12 -12 -13 -13
-9 -9 -9 -10 -10 -10 -10 -10 -10 -10 -10 -10 -10 -10 -11 -11 -11 -12 -13 -13 -14 -14 -15 -15 -15 -16 -17 -18 -18 -18 -18 -17 -17 -17 -16 -15 -14 -14 -13 -13 -13 -13 -14
-10 -10 -10 -10 -10 -11 -11 -11 -11 -11 -11 -11 -11 -11 -11 -12 -12 -12 -13 -14 -14 -14 -15 -15 -16 -17 -17 -17 -18 -18 -18 -18 -18 -17 -16 -16 -15 -15 -15 -15 -15 -13 -14

GFSGL_925_temp_108.txt.gz
Temp
1 1 1 1 2 3 4 5 7 12 17 18 17 16 15 15 15 15 15 15 16 16 17 17 17 15 15 15 15 14 14 14 14 14 14 14 13 13 13 13 13 14 13
-0 0 1 0 1 2 2 3 5 7 14 17 17 17 15 15 15 15 15 15 15 15 15 15 17 15 15 15 15 14 14 13 14 13 13 13 13 13 12 13 12 12 13
-1 -1 -1 -1 -0 0 1 2 3 6 10 14 17 18 15 14 15 14 15 15 16 16 17 14 15 15 14 14 14 14 14 13 13 13 13 13 13 12 12 12 12 12 11
-1 -1 -1 -1 -1 -1 -0 0 1 3 6 9 12 16 16 15 14 14 14 14 14 13 14 15 15 14 14 14 14 14 13 13 13 13 12 12 12 12 12 11 9 10 10
-1 -2 -2 -2 -2 -2 -2 -1 -1 1 3 4 5 9 10 13 12 14 14 13 15 14 14 14 14 14 14 14 13 13 13 13 13 13 13 12 12 12 9 8 6 5 4
-2 -2 -2 -2 -2 -2 -3 -3 -2 -2 -0 1 1 2 2 4 9 13 14 14 13 13 13 12 12 12 12 12 12 12 12 12 13 13 13 12 12 12 9 7 4 3 2
-2 -2 -2 -2 -2 -2 -3 -3 -4 -4 -3 -2 -1 0 -0 1 3 7 13 13 12 10 9 8 8 8 9 10 10 10 10 10 11 12 12 12 12 11 9 6 6 5 2
-2 -2 -2 -2 -2 -2 -2 -3 -4 -4 -4 -4 -4 -3 -2 -2 0 0 2 7 6 4 4 4 4 5 6 7 7 6 6 6 7 8 11 11 11 11 11 9 6 4 2
-3 -3 -3 -2 -2 -2 -2 -2 -3 -3 -4 -5 -5 -5 -4 -3 -1 -0 -1 -1 -1 -2 -1 -1 1 1 2 3 4 4 2 1 1 2 6 9 10 10 8 7 3 2 0
-3 -3 -3 -3 -3 -3 -2 -2 -2 -2 -3 -4 -4 -5 -5 -5 -4 -3 -1 -3 -4 -4 -4 -4 -4 -3 -1 0 2 1 -1 -2 -0 1 2 4 6 6 6 7 6 4 -0
-3 -3 -4 -4 -3 -4 -4 -3 -3 -3 -3 -4 -4 -4 -4 -5 -5 -5 -5 -5 -5 -5 -5 -5 -5 -5 -4 -3 -1 -1 -4 -3 -2 -1 -1 -0 1 1 3 3 4 4 2
-2 -2 -3 -4 -4 -4 -5 -5 -4 -4 -4 -4 -4 -5 -5 -5 -4 -5 -5 -5 -6 -6 -6 -5 -5 -5 -5 -5 -5 -6 -4 -3 -4 -4 -5 -6 -6 -4 -3 -1 0 1 2
-1 -1 -2 -3 -4 -5 -5 -6 -6 -5 -5 -5 -5 -5 -6 -6 -5 -5 -4 -4 -5 -5 -5 -5 -5 -6 -6 -6 -6 -5 -4 -5 -6 -6 -7 -7 -7 -6 -5 -5 -4 -3 -3
-2 -1 -1 -2 -4 -5 -5 -6 -6 -6 -6 -6 -7 -7 -7 -7 -6 -5 -5 -4 -4 -4 -4 -5 -5 -5 -5 -5 -5 -6 -6 -6 -7 -7 -7 -7 -6 -6 -6 -5 -5 -5 -5
-2 -2 -2 -2 -2 -4 -6 -6 -7 -7 -7 -7 -7 -7 -8 -7 -7 -6 -5 -5 -4 -4 -4 -4 -5 -5 -5 -5 -6 -5 -5 -5 -6 -6 -7 -7 -7 -7 -7 -6 -6 -6 -6
-3 -3 -4 -3 -3 -3 -3 -5 -7 -6 -6 -7 -7 -7 -8 -7 -6 -6 -6 -5 -5 -5 -5 -6 -6 -6 -6 -6 -6 -6 -6 -6 -6 -5 -6 -6 -6 -6 -6 -7 -7 -7 -7
-5 -5 -4 -4 -4 -4 -4 -4 -4 -6 -6 -7 -7 -7 -7 -7 -6 -6 -6 -6 -6 -6 -7 -7 -7 -7 -7 -7 -7 -7 -7 -6 -6 -6 -6 -6 -6 -7 -7 -7 -7 -7 -7
-5 -5 -5 -5 -5 -4 -4 -4 -4 -5 -5 -6 -7 -8 -8 -7 -7 -7 -6 -7 -7 -7 -7 -8 -8 -8 -8 -8 -8 -8 -7 -7 -7 -7 -7 -7 -6 -6 -6 -6 -6 -6 -6
-6 -5 -5 -4 -4 -4 -4 -4 -4 -5 -5 -7 -8 -8 -7 -7 -7 -8 -8 -8 -8 -8 -8 -8 -9 -9 -9 -9 -9 -8 -8 -8 -8 -7 -7 -7 -7 -7 -7 -7 -6 -6 -6
-5 -5 -5 -5 -5 -5 -5 -5 -5 -6 -6 -7 -9 -9 -9 -8 -8 -9 -9 -10 -10 -9 -9 -9 -10 -10 -10 -10 -9 -9 -9 -9 -9 -8 -8 -8 -8 -8 -8 -8 -7 -7 -7
-6 -6 -6 -6 -6 -6 -6 -6 -6 -7 -7 -7 -9 -9 -9 -9 -9 -10 -11 -11 -11 -11 -11 -11 -11 -11 -11 -11 -11 -11 -10 -10 -10 -10 -10 -9 -9 -9 -9 -9 -8 -8 -8
-7 -7 -7 -7 -7 -8 -7 -7 -8 -8 -8 -8 -8 -9 -9 -10 -10 -11 -11 -12 -12 -13 -13 -13 -13 -13 -13 -13 -13 -12 -12 -12 -12 -11 -11 -10 -10 -10 -10 -10 -10 -10 -9
-8 -8 -8 -8 -9 -9 -9 -9 -9 -9 -9 -9 -9 -9 -10 -10 -11 -11 -12 -12 -13 -13 -14 -14 -14 -14 -14 -14 -14 -14 -14 -14 -13 -13 -12 -11 -11 -11 -10 -10 -10 -11 -11
-9 -9 -9 -9 -9 -10 -10 -10 -10 -10 -10 -10 -10 -10 -10 -11 -11 -11 -12 -13 -13 -14 -14 -15 -15 -15 -15 -16 -16 -15 -15 -15 -15 -14 -13 -13 -12 -12 -12 -12 -12 -12 -13
-10 -10 -10 -10 -10 -10 -10 -11 -11 -11 -11 -11 -11 -11 -11 -11 -11 -12 -12 -13 -14 -14 -14 -15 -15 -16 -16 -17 -17 -17 -17 -17 -16 -15 -15 -14 -13 -13 -13 -13 -13 -13 -13
-10 -10 -10 -10 -10 -10 -11 -11 -11 -11 -12 -12 -12 -12 -12 -12 -12 -13 -13 -13 -14 -14 -14 -15 -15 -16 -16 -17 -17 -17 -17 -18 -17 -16 -16 -15 -15 -15 -14 -14 -14 -14 -14

GFSGL_925_temp_111.txt.gz
Temp
-1 -1 -0 -0 -0 0 1 1 2 3 4 6 11 14 15 16 17 16 16 14 15 14 14 14 14 15 16 14 17 17 16 16 14 13 14 13 13 13 13 14 14 14 14
-1 -1 -1 -1 -1 -1 -0 0 1 1 3 4 8 12 16 18 18 18 15 14 14 14 15 15 16 16 16 15 16 16 16 15 15 13 12 12 12 13 13 13 13 13 13
-1 -1 -1 -1 -1 -1 -1 -1 -1 0 1 2 4 8 12 16 16 15 14 15 15 15 14 16 15 15 16 14 14 15 15 14 14 14 13 13 13 13 13 13 12 12 12
-2 -2 -2 -1 -2 -2 -2 -2 -2 -1 -1 0 2 4 5 9 12 12 14 14 14 14 14 16 16 16 15 14 14 14 14 13 13 13 13 13 13 13 12 12 11 11 11
-2 -2 -2 -2 -2 -2 -3 -3 -3 -3 -2 -2 -1 0 2 2 2 6 12 13 14 13 13 14 14 13 13 13 13 13 14 13 13 13 13 13 13 12 12 10 8 8 7
-2 -2 -2 -2 -2 -2 -2 -3 -4 -4 -4 -4 -3 -2 -1 -1 2 7 10 13 12 13 12 12 11 13 13 13 14 13 13 13 13 13 13 12 12 12 11 9 6 4 3
-3 -2 -2 -2 -2 -2 -2 -3 -3 -4 -4 -4 -4 -4 -3 -2 0 5 2 4 8 9 10 9 8 8 9 10 11 12 12 12 12 12 12 12 12 12 11 9 8 7 5
-3 -3 -3 -3 -3 -3 -3 -3 -3 -3 -4 -4 -4 -4 -4 -3 -2 1 0 -1 -2 -0 1 3 4 4 6 7 8 7 7 7 8 8 8 10 11 12 12 11 8 5 3
-3 -4 -3 -4 -4 -4 -4 -3 -3 -4 -4 -4 -4 -4 -4 -4 -4 -2 0 -1 -3 -4 -4 -2 -0 1 1 4 5 5 3 2 2 4 5 6 9 10 10 9 4 3 0
-3 -4 -4 -4 -5 -5 -5 -4 -4 -4 -4 -5 -5 -5 -5 -4 -4 -5 -4 -4 -4 -4 -4 -4 -4 -3 -1 1 2 1 -1 -2 -0 1 2 3 5 7 6 7 6 4 -0
-3 -3 -3 -4 -5 -5 -5 -5 -5 -5 -5 -5 -6 -6 -5 -5 -4 -4 -5 -5 -5 -5 -5 -5 -4 -4 -4 -3 -1 -1 -3 -3 -2 -2 -1 0 1 2 3 4 4 4 2
-2 -2 -3 -4 -5 -5 -6 -6 -6 -6 -6 -7 -7 -6 -6 -6 -5 -4 -4 -4 -4 -5 -5 -5 -5 -5 -5 -5 -5 -5 -3 -3 -3 -4 -5 -5 -4 -3 -2 -0 1 3 3
-3 -3 -3 -3 -4 -5 -6 -7 -7 -7 -7 -7 -7 -7 -7 -7 -6 -5 -4 -4 -4 -4 -5 -5 -5 -5 -5 -6 -6 -5 -5 -5 -6 -6 -6 -6 -6 -5 -4 -3 -2 -1 -0
-4 -4 -4 -4 -5 -5 -6 -7 -7 -7 -7 -8 -8 -7 -7 -6 -6 -6 -5 -5 -4 -5 -5 -5 -5 -5 -5 -5 -5 -6 -6 -6 -6 -7 -7 -6 -5 -5 -5 -5 -5 -4 -4
-4 -5 -5 -5 -5 -5 -6 -6 -7 -7 -7 -7 -7 -7 -7 -6 -6 -6 -6 -6 -6 -6 -6 -6 -6 -6 -6 -6 -6 -6 -5 -5 -6 -6 -6 -6 -6 -6 -6 -5 -5 -5 -6
-5 -5 -5 -5 -5 -5 -5 -5 -7 -7 -7 -7 -7 -7 -7 -6 -6 -6 -6 -7 -7 -7 -7 -8 -8 -7 -7 -7 -7 -7 -6 -6 -6 -6 -6 -6 -6 -6 -6 -6 -6 -6 -6
-5 -5 -5 -5 -5 -5 -5 -5 -5 -6 -7 -7 -8 -8 -7 -7 -7 -7 -7 -8 -8 -8 -9 -9 -9 -9 -9 -8 -8 -8 -7 -7 -6 -6 -6 -7 -7 -7 -7 -7 -7 -7 -7
-5 -5 -5 -5 -5 -5 -5 -5 -6 -7 -8 -9 -8 -8 -8 -8 -8 -9 -9 -9 -9 -9 -9 -10 -10 -9 -9 -9 -9 -8 -8 -7 -7 -7 -7 -7 -7 -7 -7 -8 -7 -7 -7
-6 -6 -6 -6 -6 -6 -6 -6 -7 -7 -8 -9 -9 -9 -9 -9 -10 -10 -10 -11 -11 -11 -10 -10 -11 -11 -11 -10 -9 -9 -9 -9 -8 -8 -8 -8 -7 -7 -8 -8 -8 -8 -8
-7 -7 -7 -7 -7 -7 -8 -8 -8 -8 -8 -9 -9 -10 -10 -10 -12 -12 -12 -12 -12 -13 -12 -12 -12 -12 -11 -11 -11 -10 -10 -10 -9 -9 -8 -8 -8 -8 -7 -7 -7 -8 -9
-8 -8 -8 -8 -9 -9 -9 -9 -9 -9 -9 -9 -9 -10 -10 -10 -11 -12 -12 -13 -13 -13 -13 -13 -14 -13 -13 -13 -12 -12 -12 -11 -11 -11 -10 -9 -9 -8 -8 -8 -8 -8 -9
-9 -9 -9 -10 -9 -10 -10 -10 -10 -10 -10 -10 -10 -10 -10 -11 -11 -12 -12 -13 -13 -13 -14 -14 -14 -14 -14 -15 -14 -14 -13 -13 -12 -12 -11 -11 -10 -10 -9 -9 -9 -9 -9
-9 -10 -10 -10 -10 -10 -10 -11 -11 -11 -11 -11 -11 -11 -11 -11 -11 -12 -12 -13 -13 -14 -14 -14 -15 -15 -15 -15 -15 -15 -15 -15 -14 -14 -12 -12 -11 -11 -10 -10 -10 -10 -10
-10 -10 -10 -10 -10 -10 -11 -11 -11 -11 -11 -12 -12 -12 -12 -12 -12 -12 -12 -13 -13 -14 -14 -15 -15 -16 -16 -16 -16 -16 -16 -16 -16 -14 -14 -13 -12 -12 -11 -11 -11 -11 -11
-10 -11 -11 -11 -11 -11 -12 -11 -11 -11 -12 -12 -12 -12 -12 -12 -13 -13 -13 -13 -14 -14 -15 -15 -15 -16 -16 -17 -17 -17 -17 -17 -16 -16 -15 -14 -13 -13 -13 -13 -13 -13 -13
-11 -12 -12 -12 -13 -13 -13 -13 -13 -13 -13 -12 -12 -12 -12 -13 -13 -13 -14 -14 -14 -14 -15 -15 -15 -16 -16 -16 -17 -17 -17 -17 -17 -17 -16 -15 -15 -14 -14 -14 -14 -14 -14

GFSGL_925_temp_114.txt.gz
Temp
-1 -1 -1 -1 -1 -1 -1 -1 -1 -0 0 1 2 3 6 8 12 12 12 14 15 15 13 14 15 15 15 14 14 14 14 15 14 12 14 13 13 12 13 13 14 14 14
-1 -1 -2 -1 -1 -1 -2 -2 -2 -2 -1 -0 1 2 3 6 11 13 13 14 15 14 14 13 13 14 15 15 15 14 13 13 15 12 12 13 12 13 13 13 12 14 14
-2 -2 -2 -2 -2 -2 -2 -3 -3 -3 -2 -2 -1 0 1 2 5 9 13 15 15 14 14 13 13 13 13 14 14 13 13 13 14 15 12 12 12 12 13 13 13 13 13
-2 -2 -2 -2 -2 -2 -3 -3 -3 -3 -3 -3 -2 -2 -1 0 1 4 10 13 13 14 14 13 13 14 14 14 15 15 13 13 13 14 13 13 12 12 12 12 12 12 12
-2 -2 -3 -2 -2 -2 -2 -3 -3 -4 -4 -4 -3 -3 -2 -1 -1 1 6 10 14 12 14 14 13 13 14 14 15 13 13 13 13 13 13 13 13 13 12 12 11 11 11
-3 -3 -3 -3 -3 -3 -3 -3 -4 -4 -4 -4 -4 -3 -3 -3 -2 -0 2 7 8 6 11 12 11 13 14 14 14 13 13 13 13 13 13 13 13 13 12 10 10 6 6
-4 -4 -3 -4 -4 -4 -3 -3 -4 -4 -5 -5 -5 -4 -3 -3 -3 -1 -1 0 1 0 0 3 6 6 9 11 13 13 13 13 13 13 13 13 12 13 12 11 9 9 8
-4 -4 -4 -5 -5 -4 -4 -4 -4 -4 -5 -5 -5 -5 -4 -3 -4 -3 -2 -1 0 -1 -2 -2 -0 2 3 4 6 9 9 9 10 11 12 11 12 12 11 13 11 7 5
-4 -4 -5 -5 -6 -6 -6 -6 -5 -6 -6 -5 -6 -5 -5 -4 -4 -4 -4 -4 -3 -2 -2 -3 -3 -2 0 1 3 2 4 4 4 7 7 8 9 10 10 9 7 4 0
-4 -4 -4 -5 -6 -6 -6 -7 -6 -6 -7 -7 -6 -6 -6 -5 -4 -4 -4 -4 -4 -4 -4 -4 -3 -4 -4 -1 -0 -1 -2 -1 1 2 3 3 4 6 7 8 8 6 0
-3 -4 -4 -5 -6 -6 -7 -7 -7 -7 -7 -7 -7 -6 -6 -6 -5 -4 -4 -4 -5 -5 -5 -4 -5 -5 -4 -4 -4 -4 -4 -4 -1 -0 -0 0 1 2 3 4 5 6 3
-4 -4 -5 -5 -6 -6 -7 -7 -7 -7 -7 -7 -7 -7 -6 -6 -6 -5 -5 -5 -5 -5 -5 -5 -5 -5 -5 -5 -5 -5 -4 -5 -4 -3 -3 -4 -3 -2 -1 1 2 4 3
-4 -5 -5 -5 -6 -6 -7 -7 -7 -7 -7 -7 -7 -7 -6 -6 -6 -6 -6 -6 -6 -6 -6 -6 -5 -5 -5 -5 -5 -5 -5 -5 -6 -6 -6 -6 -5 -4 -3 -2 -1 0 2
-5 -5 -5 -5 -5 -6 -7 -7 -7 -7 -7 -7 -7 -7 -7 -6 -7 -7 -7 -7 -6 -6 -7 -6 -6 -6 -6 -6 -5 -5 -5 -6 -6 -6 -6 -6 -5 -4 -4 -4 -3 -3 -2
-5 -5 -5 -5 -5 -6 -6 -6 -7 -8 -7 -7 -7 -8 -7 -7 -7 -7 -7 -8 -8 -8 -7 -8 -8 -8 -8 -7 -7 -6 -6 -6 -6 -6 -6 -6 -6 -6 -6 -5 -4 -4 -5
-6 -6 -6 -6 -6 -6 -6 -6 -7 -8 -8 -8 -7 -7 -8 -8 -8 -8 -8 -8 -8 -9 -9 -9 -9 -9 -9 -9 -8 -8 -7 -7 -6 -6 -6 -6 -6 -6 -6 -6 -6 -6 -6
-6 -6 -6 -6 -6 -7 -7 -8 -9 -8 -8 -9 -9 -8 -9 -9 -10 -10 -10 -10 -9 -10 -10 -11 -11 -10 -10 -10 -9 -9 -9 -8 -7 -7 -7 -7 -7 -6 -6 -6 -6 -6 -7
-6 -7 -7 -7 -7 -7 -8 -8 -9 -9 -10 -9 -9 -10 -10 -10 -11 -11 -11 -10 -12 -12 -12 -12 -12 -12 -12 -11 -11 -10 -9 -9 -8 -8 -8 -7 -7 -7 -7 -7 -7 -7 -7
-7 -8 -8 -8 -8 -8 -9 -9 -9 -9 -9 -10 -10 -10 -11 -11 -11 -12 -12 -13 -14 -14 -13 -14 -14 -13 -13 -12 -12 -11 -11 -10 -10 -9 -9 -8 -8 -8 -8 -8 -8 -7 -7
-8 -9 -9 -9 -9 -10 -10 -10 -10 -10 -10 -10 -11 -11 -11 -11 -12 -12 -13 -13 -13 -14 -14 -14 -14 -14 -14 -14 -13 -12 -12 -11 -11 -11 -10 -9 -8 -8 -8 -8 -8 -8 -9
-9 -10 -10 -10 -10 -10 -11 -11 -11 -11 -11 -11 -11 -11 -11 -11 -12 -12 -13 -13 -14 -14 -14 -15 -15 -15 -15 -15 -14 -14 -14 -14 -13 -12 -11 -10 -9 -8 -8 -8 -8 -9 -9
-10 -10 -10 -10 -11 -11 -11 -11 -11 -11 -12 -12 -12 -12 -12 -12 -12 -13 -13 -14 -14 -14 -14 -15 -15 -16 -16 -16 -16 -15 -15 -15 -14 -13 -12 -11 -11 -10 -9 -9 -9 -9 -9
-10 -10 -11 -11 -11 -11 -11 -11 -11 -12 -12 -12 -12 -12 -12 -12 -12 -13 -13 -14 -14 -14 -15 -15 -15 -16 -16 -16 -17 -17 -17 -17 -16 -15 -14 -12 -11 -11 -10 -10 -10 -10 -9
-11 -11 -11 -12 -12 -12 -12 -13 -13 -13 -13 -13 -12 -12 -13 -13 -13 -13 -13 -14 -14 -14 -15 -15 -15 -16 -16 -16 -17 -17 -17 -17 -17 -16 -15 -14 -13 -12 -11 -11 -11 -11 -11
-12 -12 -13 -13 -13 -14 -14 -14 -15 -15 -15 -16 -15 -14 -13 -13 -13 -13 -14 -14 -14 -14 -14 -15 -15 -16 -16 -16 -16 -17 -17 -17 -17 -16 -15 -15 -14 -13 -13 -13 -13 -12 -12
-13 -13 -14 -14 -15 -15 -16 -16 -17 -17 -17 -17 -17 -17 -17 -16 -15 -14 -14 -14 -14 -15 -15 -15 -15 -16 -16 -16 -17 -17 -17 -18 -18 -18 -17 -16 -15 -14 -14 -14 -14 -14 -14

GFSGL_925_temp_117.txt.gz
Temp
-1 -1 -1 -1 -2 -2 -2 -2 -3 -2 -2 -1 -1 -0 1 1 2 3 6 10 11 12 13 13 13 14 14 14 14 14 14 15 14 13 13 14 14 13 13 12 13 13 14
-2 -2 -2 -2 -2 -2 -2 -3 -3 -3 -3 -2 -2 -1 -1 -0 1 1 3 6 11 12 13 13 13 14 15 15 14 14 14 14 14 13 12 13 12 13 13 12 12 12 14
-2 -2 -2 -2 -2 -2 -2 -3 -3 -3 -3 -3 -3 -2 -2 -1 -1 -0 1 4 7 12 13 13 15 13 13 14 14 14 13 13 13 14 12 12 12 12 12 12 12 13 13
-3 -3 -3 -3 -3 -3 -3 -4 -4 -4 -4 -4 -3 -3 -3 -2 -2 -1 -1 3 6 9 12 13 14 13 13 13 13 13 13 13 13 13 12 12 12 12 12 12 12 12 12
-3 -3 -3 -3 -4 -4 -4 -4 -4 -4 -4 -4 -4 -3 -3 -3 -3 -2 -1 -0 1 4 8 9 10 12 14 13 13 13 13 13 13 13 13 13 12 12 12 12 12 12 12
-4 -4 -4 -4 -5 -5 -4 -5 -4 -5 -5 -5 -5 -4 -3 -3 -3 -3 -3 -2 -2 -1 0 3 4 5 10 12 13 14 15 13 12 12 13 13 13 12 12 12 10 8 8
-4 -5 -5 -5 -5 -5 -5 -5 -6 -6 -6 -6 -6 -5 -4 -3 -3 -4 -4 -3 -3 -3 -2 -0 1 1 2 8 11 12 12 13 14 14 14 14 13 12 12 11 11 10 10
-4 -5 -5 -6 -6 -6 -6 -6 -6 -7 -7 -7 -6 -6 -5 -4 -4 -4 -4 -4 -4 -4 -3 -3 -2 -0 0 2 4 6 6 6 8 11 13 12 12 12 12 12 12 10 8
-5 -5 -6 -6 -7 -7 -7 -7 -7 -7 -7 -7 -7 -6 -6 -5 -4 -4 -4 -4 -4 -4 -4 -4 -4 -3 -2 1 0 1 1 -1 0 2 5 9 11 11 11 11 9 7 1
-5 -5 -6 -6 -7 -7 -7 -7 -7 -7 -7 -7 -7 -6 -6 -6 -5 -5 -5 -5 -5 -5 -5 -5 -5 -4 -4 -3 -1 -1 -3 -2 -0 0 1 4 7 8 8 8 9 7 2
-5 -5 -5 -6 -7 -7 -7 -7 -7 -7 -7 -7 -7 -7 -7 -7 -7 -6 -6 -6 -6 -6 -5 -5 -5 -5 -5 -5 -5 -4 -5 -3 -2 -1 -2 -2 1 3 4 4 6 7 5
-5 -5 -6 -6 -7 -7 -7 -7 -8 -7 -7 -7 -7 -7 -7 -7 -7 -7 -7 -7 -7 -7 -7 -7 -6 -6 -6 -5 -5 -5 -5 -4 -4 -2 -4 -5 -5 -3 -1 -0 2 4 4
-5 -5 -5 -6 -6 -7 -8 -8 -8 -7 -7 -7 -8 -8 -8 -8 -8 -8 -8 -7 -7 -8 -8 -8 -7 -7 -7 -6 -6 -6 -6 -6 -6 -6 -6 -6 -5 -5 -3 -2 -1 0 2
-5 -6 -6 -6 -6 -7 -8 -8 -8 -8 -8 -7 -8 -9 -9 -9 -8 -8 -8 -9 -8 -8 -8 -8 -9 -8 -8 -8 -7 -7 -7 -6 -6 -6 -6 -6 -5 -5 -4 -4 -3 -3 -2
-6 -6 -6 -7 -7 -7 -8 -8 -8 -8 -8 -8 -9 -10 -9 -10 -9 -8 -9 -9 -9 -10 -10 -10 -10 -10 -9 -9 -9 -8 -8 -8 -7 -7 -7 -6 -6 -6 -6 -5 -5 -4 -5
-7 -7 -7 -8 -8 -8 -8 -9 -9 -9 -9 -9 -9 -9 -10 -10 -10 -10 -10 -10 -11 -11 -12 -12 -12 -11 -11 -11 -10 -10 -9 -9 -9 -8 -8 -7 -7 -7 -6 -6 -6 -6 -6
-8 -8 -8 -8 -9 -9 -9 -10 -10 -10 -10 -10 -10 -10 -10 -11 -11 -11 -12 -12 -12 -13 -13 -14 -14 -13 -13 -12 -12 -12 -11 -11 -9 -9 -9 -8 -8 -7 -7 -7 -7 -6 -6
-8 -8 -9 -9 -9 -9 -10 -10 -10 -11 -11 -11 -11 -11 -11 -11 -12 -12 -13 -12 -14 -14 -15 -15 -15 -15 -15 -14 -14 -14 -13 -12 -11 -10 -9 -9 -8 -8 -8 -8 -7 -7 -7
-9 -9 -9 -10 -10 -10 -10 -10 -11 -11 -11 -12 -12 -11 -12 -12 -12 -13 -13 -14 -15 -15 -15 -16 -16 -16 -16 -15 -15 -14 -14 -13 -13 -12 -11 -10 -9 -8 -8 -8 -8 -8 -8
-10 -10 -10 -10 -10 -11 -11 -11 -11 -11 -12 -12 -12 -12 -12 -12 -13 -13 -13 -14 -14 -15 -15 -15 -16 -16 -16 -16 -16 -15 -15 -14 -14 -13 -12 -11 -10 -9 -9 -9 -8 -9 -9
-10 -10 -10 -11 -11 -11 -11 -11 -12 -12 -12 -12 -12 -12 -12 -12 -13 -14 -14 -14 -14 -15 -15 -15 -15 -16 -16 -17 -17 -16 -16 -16 -15 -15 -14 -12 -11 -10 -9 -9 -9 -9 -9
-10 -11 -11 -11 -11 -12 -12 -12 -12 -12 -13 -13 -13 -12 -13 -13 -13 -13 -13 -14 -14 -15 -15 -15 -16 -16 -16 -17 -17 -17 -17 -17 -17 -16 -15 -14 -12 -11 -10 -10 -9 -9 -9
-11 -11 -11 -12 -12 -13 -13 -13 -14 -14 -14 -14 -14 -13 -13 -13 -13 -13 -14 -14 -14 -14 -15 -15 -16 -16 -16 -16 -17 -17 -18 -18 -18 -17 -16 -15 -13 -12 -12 -11 -11 -10 -10
-12 -12 -13 -13 -14 -14 -14 -15 -15 -16 -16 -16 -17 -17 -16 -15 -15 -14 -14 -14 -14 -14 -15 -15 -15 -16 -16 -16 -17 -17 -18 -18 -18 -17 -16 -15 -14 -13 -13 -12 -12 -12 -11
-13 -13 -14 -15 -15 -16 -16 -16 -17 -17 -17 -18 -18 -18 -18 -18 -17 -17 -16 -15 -15 -15 -15 -16 -16 -16 -16 -16 -17 -17 -17 -18 -18 -18 -17 -16 -15 -15 -14 -14 -13 -13 -12
-14 -15 -15 -16 -16 -17 -17 -18 -19 -19 -19 -19 -19 -20 -20 -19 -19 -19 -19 -19 -18 -17 -16 -16 -16 -16 -16 -16 -17 -17 -17 -18 -18 -18 -18 -18 -17 -16 -15 -15 -14 -14 -14

GFSGL_925_temp_120.txt.gz
Temp
-2 -2 -2 -2 -2 -2 -2 -3 -3 -3 -2 -2 -2 -2 -1 -1 -1 -0 0 2 2 5 9 11 12 13 13 13 13 13 13 14 14 16 14 13 13 13 13 13 13 14 14
-2 -2 -2 -3 -2 -3 -3 -4 -4 -4 -3 -3 -2 -2 -2 -2 -2 -1 -1 0 2 3 6 10 11 13 13 13 13 13 13 14 14 14 13 12 12 13 14 12 12 13 14
-3 -3 -3 -3 -3 -3 -3 -4 -4 -4 -4 -4 -3 -3 -2 -2 -2 -2 -1 -0 0 2 3 6 11 12 13 13 13 13 13 14 14 15 13 12 12 13 12 12 12 12 12
-3 -4 -4 -4 -4 -4 -4 -5 -5 -5 -5 -5 -4 -3 -3 -3 -3 -3 -2 -2 -1 -1 0 1 3 4 5 10 13 13 14 13 13 13 14 13 12 12 13 12 12 12 12
-4 -5 -5 -5 -5 -5 -5 -5 -6 -6 -6 -6 -5 -4 -3 -3 -3 -3 -3 -3 -3 -2 -2 -1 -0 0 3 6 8 13 13 13 13 13 13 13 12 12 12 12 12 12 12
-4 -5 -5 -5 -5 -5 -5 -6 -6 -6 -7 -6 -6 -5 -5 -4 -4 -3 -4 -4 -4 -4 -3 -3 -2 -2 0 3 5 11 12 13 13 13 14 13 13 13 12 12 11 9 9
-5 -5 -6 -6 -6 -6 -6 -6 -6 -7 -7 -7 -7 -6 -6 -5 -4 -4 -4 -4 -4 -5 -4 -4 -4 -3 -3 -0 2 2 7 7 8 9 13 13 13 13 12 12 10 11 11
-5 -6 -6 -7 -7 -7 -6 -6 -7 -7 -7 -7 -7 -7 -7 -6 -5 -5 -5 -5 -5 -5 -5 -5 -4 -4 -4 -3 -0 0 0 2 2 3 5 8 11 13 13 12 11 10 9
-6 -6 -6 -7 -7 -7 -7 -7 -7 -8 -7 -8 -7 -7 -7 -7 -6 -5 -6 -6 -6 -6 -6 -6 -5 -5 -4 -4 -4 -2 -2 -0 -0 1 1 1 4 9 10 12 9 7 1
-6 -6 -6 -7 -7 -7 -8 -8 -7 -7 -8 -8 -8 -8 -8 -8 -7 -6 -7 -7 -7 -7 -7 -7 -6 -5 -5 -5 -5 -5 -4 -5 -4 -1 1 2 1 2 4 7 10 9 3
-6 -6 -6 -7 -7 -7 -7 -8 -8 -8 -8 -9 -9 -9 -9 -8 -8 -7 -7 -8 -9 -8 -8 -8 -7 -6 -6 -6 -6 -6 -5 -5 -5 -4 -3 -2 -0 1 -0 1 4 6 6
-6 -6 -6 -7 -7 -8 -8 -8 -8 -8 -9 -9 -9 -10 -10 -9 -8 -8 -8 -8 -9 -9 -9 -9 -8 -7 -7 -7 -7 -7 -6 -6 -6 -5 -5 -5 -5 -5 -2 -2 -1 2 3
-6 -6 -6 -7 -7 -8 -9 -9 -9 -9 -9 -10 -10 -10 -10 -10 -10 -9 -9 -9 -10 -10 -10 -10 -9 -9 -9 -9 -8 -8 -8 -7 -7 -6 -6 -6 -6 -6 -4 -2 -2 -1 0
-6 -7 -7 -7 -8 -9 -9 -9 -9 -9 -9 -10 -11 -11 -11 -11 -10 -10 -10 -11 -11 -11 -11 -11 -11 -11 -11 -11 -10 -10 -10 -9 -8 -7 -7 -7 -6 -6 -6 -5 -4 -3 -2
-7 -7 -7 -8 -8 -9 -9 -9 -9 -9 -9 -10 -10 -11 -11 -11 -11 -11 -11 -11 -12 -13 -12 -13 -13 -13 -12 -12 -12 -12 -11 -11 -10 -9 -8 -8 -7 -7 -6 -6 -5 -5 -5
-8 -8 -9 -9 -9 -10 -10 -10 -10 -10 -10 -10 -10 -10 -11 -11 -11 -11 -12 -12 -13 -14 -14 -15 -15 -15 -14 -14 -14 -13 -13 -13 -12 -11 -10 -9 -8 -7 -7 -7 -6 -6 -6
-8 -9 -10 -10 -10 -11 -11 -11 -11 -11 -11 -11 -11 -11 -11 -11 -12 -12 -13 -14 -14 -14 -16 -16 -16 -16 -16 -16 -16 -15 -15 -15 -13 -13 -12 -11 -11 -8 -8 -7 -7 -7 -7
-9 -9 -10 -10 -10 -10 -11 -11 -12 -12 -13 -12 -12 -12 -12 -12 -13 -13 -14 -14 -15 -16 -16 -17 -17 -17 -17 -17 -17 -17 -17 -16 -15 -14 -14 -13 -12 -11 -9 -8 -8 -8 -8
-10 -10 -10 -10 -11 -11 -11 -11 -12 -12 -12 -12 -13 -12 -12 -13 -13 -14 -14 -14 -16 -16 -16 -17 -17 -17 -18 -18 -18 -17 -17 -17 -16 -16 -15 -14 -13 -12 -11 -10 -9 -9 -8
-10 -11 -11 -11 -11 -11 -12 -12 -12 -12 -12 -12 -13 -13 -13 -13 -13 -13 -14 -14 -15 -15 -16 -16 -16 -16 -17 -17 -18 -17 -18 -17 -17 -17 -16 -15 -14 -13 -12 -11 -10 -10 -9
-11 -11 -11 -11 -12 -12 -13 -13 -13 -13 -14 -13 -13 -13 -13 -14 -14 -14 -14 -14 -15 -15 -15 -16 -16 -16 -17 -17 -17 -18 -18 -18 -18 -18 -17 -16 -15 -14 -12 -11 -10 -10 -10
-11 -11 -12 -12 -13 -13 -14 -14 -14 -14 -15 -15 -15 -14 -14 -14 -14 -14 -14 -15 -15 -15 -15 -15 -16 -16 -17 -17 -17 -18 -18 -18 -18 -18 -18 -16 -15 -15 -13 -12 -11 -11 -10
-11 -12 -13 -13 -14 -14 -15 -15 -16 -16 -17 -17 -17 -17 -17 -17 -17 -17 -16 -16 -15 -15 -15 -16 -16 -16 -16 -17 -17 -18 -18 -18 -19 -19 -18 -17 -16 -16 -14 -14 -13 -12 -12
-12 -13 -14 -14 -15 -16 -16 -17 -17 -17 -18 -18 -18 -19 -19 -19 -19 -19 -19 -18 -17 -17 -17 -16 -16 -16 -16 -16 -17 -17 -17 -18 -18 -18 -18 -18 -17 -16 -15 -14 -14 -13 -13
-13 -14 -15 -16 -16 -17 -17 -18 -18 -19 -19 -19 -20 -20 -20 -20 -20 -20 -20 -20 -19 -19 -18 -18 -18 -17 -17 -17 -17 -17 -18 -18 -18 -18 -19 -18 -18 -17 -16 -16 -15 -14 -14
-15 -15 -16 -17 -17 -18 -19 -20 -20 -20 -21 -21 -21 -21 -22 -22 -22 -22 -22 -21 -21 -21 -20 -20 -20 -19 -19 -18 -18 -17 -18 -18 -18 -18 -19 -19 -19 -18 -17 -17 -16 -15 -15

GFSGL_925_temp_123.txt.gz
Temp
-2 -2 -2 -3 -2 -3 -3 -3 -3 -3 -3 -3 -2 -2 -2 -1 -1 -1 -0 1 1 2 4 5 6 9 11 12 13 13 13 14 14 16 17 17 16 15 14 13 13 13 13
-2 -3 -3 -3 -3 -3 -3 -4 -4 -4 -4 -4 -3 -3 -2 -2 -2 -2 -1 -0 0 1 2 2 4 4 8 12 13 13 13 13 13 14 15 15 15 14 14 13 13 13 13
-3 -3 -3 -3 -4 -4 -4 -4 -4 -4 -4 -4 -4 -4 -3 -3 -3 -2 -2 -2 -1 -1 -1 0 1 0 1 2 6 11 13 13 13 13 14 15 13 13 13 13 12 13 13
-4 -4 -4 -4 -4 -4 -4 -5 -5 -5 -5 -5 -5 -4 -4 -4 -3 -3 -2 -2 -2 -2 -2 -2 -2 -2 -2 -1 1 4 7 12 13 13 13 13 12 12 12 13 12 12 12
-4 -4 -5 -5 -5 -5 -5 -5 -5 -6 -5 -5 -5 -5 -5 -4 -4 -4 -3 -3 -3 -3 -3 -3 -3 -3 -3 -1 -0 0 2 5 13 13 13 13 13 12 13 13 13 12 12
-4 -5 -5 -5 -6 -6 -6 -6 -6 -6 -6 -6 -6 -6 -5 -5 -4 -5 -4 -4 -4 -4 -4 -4 -4 -4 -3 -2 -1 -1 -0 -1 0 11 14 13 13 13 13 13 12 11 11
-4 -5 -5 -6 -6 -7 -7 -7 -7 -7 -7 -7 -7 -7 -6 -5 -5 -6 -5 -5 -5 -5 -5 -5 -4 -4 -4 -4 -2 -2 -2 -0 -1 -1 1 9 9 13 14 13 12 12 12
-5 -6 -6 -7 -7 -7 -7 -8 -8 -7 -8 -8 -8 -7 -7 -6 -6 -6 -6 -6 -6 -6 -6 -5 -5 -5 -5 -5 -5 -4 -4 -4 -2 -2 -1 -0 -0 3 5 12 12 12 10
-6 -6 -7 -7 -8 -8 -8 -8 -8 -8 -8 -8 -9 -9 -8 -8 -6 -6 -7 -7 -7 -7 -7 -7 -6 -6 -5 -5 -5 -5 -5 -5 -4 -3 -3 -2 -1 1 4 8 11 9 3
-6 -6 -7 -7 -8 -8 -8 -8 -8 -8 -9 -9 -9 -10 -9 -9 -8 -7 -8 -8 -8 -8 -8 -8 -7 -7 -6 -6 -6 -6 -5 -5 -5 -4 -4 -3 -2 -1 1 0 0 5 6
-6 -6 -7 -7 -8 -8 -8 -8 -8 -9 -9 -9 -9 -10 -10 -10 -9 -8 -9 -9 -9 -8 -9 -9 -9 -8 -8 -7 -8 -8 -7 -7 -6 -5 -5 -5 -5 -4 -3 -3 -1 -0 -0
-6 -7 -7 -8 -8 -8 -9 -9 -9 -9 -9 -9 -9 -10 -10 -10 -10 -10 -10 -10 -11 -10 -10 -10 -10 -10 -10 -9 -9 -9 -9 -8 -7 -7 -6 -6 -6 -6 -5 -4 -3 -1 -0
-6 -7 -7 -8 -8 -8 -8 -8 -8 -9 -9 -9 -9 -10 -10 -10 -11 -11 -11 -11 -12 -12 -12 -12 -12 -11 -11 -11 -11 -11 -11 -10 -9 -8 -8 -7 -6 -6 -5 -5 -4 -2 -1
-6 -7 -7 -7 -8 -8 -8 -8 -8 -8 -9 -9 -10 -10 -10 -10 -11 -11 -11 -12 -13 -13 -13 -13 -13 -13 -13 -13 -13 -12 -12 -12 -11 -10 -9 -9 -8 -6 -6 -6 -5 -5 -4
-7 -7 -7 -8 -8 -9 -9 -9 -9 -9 -9 -9 -10 -10 -10 -11 -11 -12 -12 -12 -13 -14 -14 -14 -14 -14 -14 -14 -14 -14 -13 -13 -13 -12 -11 -10 -9 -7 -7 -6 -6 -5 -5
-7 -8 -8 -9 -9 -9 -9 -10 -11 -10 -10 -10 -10 -10 -11 -11 -12 -12 -13 -13 -14 -14 -14 -15 -15 -15 -15 -15 -15 -15 -15 -15 -14 -13 -12 -12 -11 -9 -8 -7 -7 -6 -5
-8 -9 -9 -10 -10 -10 -11 -11 -11 -12 -12 -12 -12 -11 -11 -12 -12 -13 -14 -14 -14 -14 -14 -15 -15 -16 -15 -15 -16 -15 -15 -16 -15 -14 -13 -13 -12 -11 -9 -8 -7 -7 -6
-9 -10 -11 -11 -11 -11 -12 -12 -12 -12 -12 -12 -13 -13 -12 -12 -13 -14 -14 -14 -14 -14 -14 -15 -15 -15 -15 -16 -16 -17 -16 -16 -16 -16 -15 -14 -14 -12 -11 -9 -8 -8 -7
-10 -11 -11 -11 -12 -12 -12 -12 -12 -12 -12 -12 -12 -13 -14 -13 -13 -14 -14 -14 -14 -14 -14 -14 -15 -16 -16 -16 -17 -17 -17 -17 -17 -17 -16 -15 -15 -13 -12 -11 -10 -9 -7
-11 -11 -11 -11 -12 -12 -12 -12 -12 -13 -13 -13 -13 -15 -15 -13 -13 -14 -14 -15 -14 -14 -15 -15 -15 -16 -16 -17 -17 -17 -17 -17 -17 -17 -17 -16 -15 -13 -12 -12 -11 -10 -9
-11 -11 -12 -12 -12 -13 -13 -14 -14 -14 -14 -14 -15 -17 -16 -15 -15 -15 -16 -16 -16 -16 -16 -16 -16 -16 -16 -17 -17 -17 -17 -17 -18 -18 -17 -17 -16 -14 -14 -12 -12 -11 -10
-12 -12 -12 -13 -14 -14 -14 -15 -15 -16 -16 -16 -16 -17 -18 -17 -17 -17 -17 -18 -18 -18 -18 -18 -17 -17 -17 -18 -18 -18 -18 -18 -18 -18 -18 -18 -17 -15 -15 -13 -12 -12 -11
-12 -13 -14 -14 -15 -16 -17 -17 -17 -17 -18 -18 -18 -18 -18 -19 -19 -19 -19 -20 -20 -20 -20 -20 -20 -20 -19 -19 -19 -19 -19 -19 -19 -19 -19 -18 -18 -17 -16 -15 -14 -13 -13
-13 -14 -15 -16 -17 -17 -18 -19 -19 -19 -20 -20 -20 -20 -20 -20 -21 -21 -22 -22 -22 -22 -22 -22 -21 -21 -21 -21 -20 -20 -19 -20 -19 -19 -19 -19 -18 -18 -17 -16 -15 -15 -14
-14 -15 -15 -17 -18 -19 -19 -20 -20 -21 -21 -22 -22 -22 -22 -22 -23 -23 -23 -24 -23 -23 -22 -22 -23 -22 -21 -21 -22 -21 -20 -19 -19 -19 -19 -19 -19 -19 -18 -17 -17 -16 -15
-15 -16 -17 -18 -19 -20 -20 -21 -21 -21 -21 -23 -23 -23 -24 -24 -24 -25 -25 -25 -24 -24 -24 -24 -23 -22 -22 -23 -23 -20 -20 -20 -19 -19 -19 -19 -19 -19 -19 -19 -18 -17 -15

GFSGL_925_temp_126.txt.gz
Temp
-1 -1 -1 -1 -1 -1 -2 -2 -2 -2 -2 -2 -2 -2 -2 -1 -1 -1 -1 -0 -0 0 0 1 3 2 3 4 8 11 13 14 16 17 18 18 18 18 19 18 17 16 16
-1 -1 -1 -2 -1 -1 -2 -2 -2 -2 -2 -2 -2 -2 -2 -2 -2 -1 -1 -1 -1 -1 -1 -0 -1 -1 0 1 2 4 7 13 14 15 15 16 16 17 17 17 16 15 15
-1 -1 -1 -1 -1 -2 -2 -2 -3 -2 -2 -3 -3 -2 -2 -2 -2 -2 -2 -2 -2 -2 -2 -2 -2 -2 -2 -1 0 2 4 5 8 13 14 14 14 15 16 16 16 15 13
-1 -1 -1 -2 -2 -2 -2 -2 -2 -2 -2 -3 -3 -2 -2 -2 -3 -3 -2 -2 -2 -2 -3 -3 -3 -3 -2 -2 -0 0 1 2 4 6 12 15 14 14 15 15 14 13 13
-1 -2 -2 -2 -2 -3 -3 -3 -3 -3 -3 -3 -2 -2 -2 -3 -5 -4 -2 -2 -2 -3 -3 -3 -3 -3 -3 -3 -3 -2 -2 -1 1 2 6 9 14 13 14 14 13 13 12
-2 -2 -3 -3 -3 -4 -3 -3 -3 -3 -4 -4 -4 -3 -3 -4 -5 -5 -4 -3 -4 -4 -4 -4 -3 -4 -4 -3 -4 -4 -4 -3 -3 -1 1 1 2 2 7 13 13 13 12
-2 -3 -3 -4 -5 -5 -5 -5 -5 -5 -5 -6 -5 -5 -5 -5 -6 -6 -5 -5 -5 -5 -5 -5 -5 -5 -5 -4 -3 -4 -4 -4 -4 -3 -3 -2 -2 -2 -2 1 9 13 13
-3 -4 -4 -5 -5 -6 -6 -6 -6 -6 -6 -7 -7 -6 -6 -7 -7 -7 -5 -5 -5 -6 -6 -6 -6 -6 -6 -5 -4 -4 -4 -5 -4 -4 -4 -4 -4 -4 -3 -2 1 4 12
-4 -5 -6 -6 -7 -6 -6 -6 -6 -6 -6 -7 -7 -8 -7 -7 -7 -8 -7 -5 -6 -6 -6 -7 -8 -7 -7 -7 -6 -6 -5 -5 -5 -5 -4 -4 -4 -4 -4 -2 -1 1 6
-5 -5 -5 -6 -7 -7 -6 -6 -7 -7 -7 -7 -7 -8 -8 -8 -8 -8 -8 -7 -6 -6 -6 -7 -9 -8 -8 -8 -8 -7 -7 -7 -6 -6 -5 -4 -5 -5 -4 -4 -4 -1 1
-5 -6 -6 -6 -7 -7 -7 -7 -7 -7 -7 -7 -7 -7 -8 -9 -9 -9 -9 -9 -8 -7 -8 -8 -9 -10 -9 -9 -9 -9 -9 -8 -7 -6 -6 -6 -6 -5 -5 -5 -4 -3 -2
-5 -6 -7 -7 -6 -7 -7 -6 -7 -7 -7 -7 -7 -7 -8 -8 -9 -9 -10 -11 -11 -9 -10 -10 -10 -11 -10 -10 -10 -10 -9 -8 -8 -7 -7 -7 -7 -6 -5 -5 -5 -3 -4
-5 -6 -7 -7 -7 -6 -6 -6 -6 -6 -6 -7 -6 -7 -7 -8 -9 -10 -10 -10 -11 -11 -11 -12 -11 -11 -11 -11 -11 -11 -10 -10 -9 -8 -8 -8 -8 -7 -6 -5 -5 -4 -4
-4 -4 -5 -6 -6 -6 -6 -6 -7 -7 -6 -7 -7 -8 -8 -9 -10 -10 -10 -10 -11 -11 -11 -11 -11 -11 -11 -11 -11 -11 -11 -11 -11 -10 -10 -9 -9 -8 -7 -6 -5 -5 -4
-4 -4 -5 -5 -6 -7 -8 -8 -7 -9 -9 -8 -8 -9 -9 -10 -11 -12 -12 -12 -12 -12 -11 -11 -11 -11 -11 -11 -11 -11 -11 -12 -12 -11 -11 -10 -10 -9 -8 -7 -6 -5 -5
-4 -5 -6 -5 -6 -6 -6 -8 -11 -10 -10 -11 -10 -10 -10 -11 -12 -12 -12 -12 -12 -11 -11 -11 -11 -11 -11 -11 -12 -12 -12 -12 -12 -12 -11 -11 -11 -10 -9 -8 -7 -6 -4
-5 -6 -7 -7 -7 -7 -7 -7 -7 -10 -11 -12 -12 -11 -11 -12 -12 -12 -12 -11 -11 -11 -11 -11 -12 -12 -12 -12 -12 -12 -12 -13 -13 -12 -12 -12 -12 -11 -9 -8 -8 -7 -7
-9 -8 -8 -8 -8 -8 -9 -9 -9 -9 -9 -9 -11 -12 -12 -12 -12 -12 -12 -11 -10 -11 -11 -11 -12 -12 -12 -12 -13 -13 -13 -13 -13 -13 -13 -13 -13 -11 -10 -9 -8 -8 -8
-9 -9 -9 -9 -9 -10 -9 -9 -9 -9 -9 -9 -10 -11 -12 -12 -12 -12 -12 -12 -11 -11 -11 -11 -12 -12 -13 -13 -13 -14 -14 -14 -14 -14 -14 -14 -13 -12 -11 -10 -9 -9 -8
-10 -10 -9 -9 -9 -9 -9 -9 -9 -10 -10 -10 -11 -13 -13 -11 -12 -12 -13 -13 -13 -13 -13 -13 -13 -13 -14 -14 -14 -14 -14 -14 -14 -14 -15 -15 -14 -13 -12 -11 -11 -10 -9
-8 -10 -10 -9 -10 -10 -10 -10 -11 -11 -11 -11 -12 -15 -16 -13 -13 -13 -14 -15 -15 -15 -15 -15 -15 -15 -15 -15 -15 -15 -15 -15 -15 -15 -15 -15 -15 -14 -14 -13 -12 -11 -10
-9 -9 -10 -10 -11 -12 -11 -12 -12 -12 -13 -13 -13 -14 -16 -15 -15 -15 -15 -16 -17 -17 -17 -17 -17 -17 -17 -17 -17 -16 -16 -16 -16 -16 -16 -16 -15 -15 -15 -14 -13 -12 -11
-10 -10 -11 -11 -12 -13 -13 -13 -14 -14 -14 -15 -15 -15 -16 -16 -17 -17 -18 -18 -19 -19 -19 -19 -19 -19 -19 -20 -19 -18 -18 -17 -18 -17 -17 -17 -16 -15 -15 -15 -14 -13 -13
-11 -11 -12 -13 -14 -14 -14 -15 -15 -16 -17 -16 -16 -17 -17 -18 -18 -19 -19 -20 -21 -21 -21 -21 -21 -21 -22 -22 -21 -20 -20 -20 -19 -19 -19 -17 -16 -16 -16 -16 -15 -15 -14
-12 -13 -13 -14 -15 -15 -15 -16 -16 -17 -17 -17 -18 -18 -19 -19 -19 -20 -21 -21 -23 -23 -22 -22 -22 -23 -23 -23 -22 -23 -23 -23 -21 -20 -19 -18 -17 -17 -16 -17 -16 -15 -14
-14 -14 -14 -15 -15 -16 -16 -17 -17 -18 -18 -19 -19 -19 -20 -20 -21 -22 -22 -23 -24 -24 -23 -23 -23 -24 -24 -23 -23 -24 -24 -23 -22 -22 -20 -18 -17 -17 -17 -17 -17 -16 -15

GFSGL_925_temp_129.txt.gz
Temp
1 1 1 1 1 0 -0 -1 -1 -1 -1 -1 -1 -1 -0 -0 -0 -0 -0 -1 -1 -1 -1 -1 -1 -1 -1 0 1 2 3 6 10 13 15 17 17 18 19 19 18 18 19
1 1 1 1 1 1 -0 -1 -1 -2 -2 -2 -1 -1 -1 -1 -1 -1 -1 -1 -1 -2 -2 -2 -2 -2 -2 -2 -1 1 2 3 5 7 11 15 16 17 17 17 17 17 18
3 2 2 2 1 1 1 0 -0 -0 -0 -1 -0 -0 -1 -2 -2 -1 -0 -0 -1 -2 -2 -2 -3 -3 -2 -2 -1 -1 -0 0 2 4 6 9 12 14 15 16 15 16 16
2 2 1 1 1 0 -0 0 -0 -0 -0 -0 0 -0 -1 -2 -4 -2 -1 -1 -1 -2 -2 -2 -3 -3 -3 -3 -2 -3 -2 -2 -0 1 4 6 6 8 10 12 13 16 16
2 1 0 0 -0 -1 -1 -1 -1 -1 -1 -2 -1 -1 -2 -3 -5 -4 -2 -1 -2 -2 -3 -2 -3 -4 -4 -3 -3 -3 -4 -3 -2 -1 0 0 1 0 1 0 2 4 11
1 0 -0 -1 -1 -2 -2 -2 -2 -2 -3 -3 -2 -3 -4 -4 -6 -5 -3 -3 -4 -4 -4 -4 -3 -5 -5 -3 -3 -3 -4 -4 -4 -3 -2 -2 -2 -3 -2 -2 -0 2 6
0 -0 -1 -2 -3 -3 -3 -3 -4 -4 -4 -5 -5 -4 -5 -6 -7 -6 -4 -4 -4 -4 -5 -6 -5 -6 -6 -5 -3 -3 -4 -4 -4 -4 -3 -4 -4 -4 -4 -3 -2 -1 1
-1 -2 -3 -3 -3 -4 -4 -5 -5 -5 -5 -6 -6 -6 -6 -7 -7 -7 -5 -4 -5 -5 -6 -7 -7 -7 -7 -7 -5 -5 -5 -5 -5 -4 -4 -4 -4 -4 -4 -4 -2 -3 -0
-2 -4 -4 -5 -5 -5 -5 -5 -5 -5 -5 -6 -6 -7 -7 -7 -8 -8 -6 -4 -5 -6 -6 -7 -9 -9 -8 -8 -7 -7 -7 -6 -5 -5 -5 -5 -5 -4 -4 -4 -4 -3 -2
-3 -3 -4 -5 -6 -6 -6 -6 -6 -6 -6 -5 -6 -7 -7 -8 -8 -8 -9 -7 -6 -6 -6 -7 -9 -9 -9 -9 -9 -8 -8 -7 -6 -6 -5 -5 -5 -5 -5 -5 -4 -3 -3
-4 -4 -5 -4 -5 -5 -5 -6 -6 -6 -5 -5 -5 -6 -7 -8 -9 -8 -9 -9 -8 -7 -8 -9 -9 -9 -9 -9 -9 -9 -9 -8 -7 -6 -6 -6 -6 -6 -6 -5 -5 -4 -3
-4 -5 -5 -5 -5 -5 -5 -5 -5 -5 -5 -5 -5 -5 -7 -8 -9 -9 -9 -10 -10 -9 -9 -10 -10 -9 -9 -9 -9 -9 -9 -9 -8 -7 -7 -7 -7 -7 -7 -6 -6 -5 -4
-5 -6 -5 -5 -5 -4 -5 -5 -4 -5 -5 -5 -5 -6 -7 -8 -9 -10 -10 -10 -10 -9 -9 -10 -9 -9 -9 -10 -10 -10 -10 -10 -9 -8 -8 -8 -8 -8 -7 -7 -6 -6 -4
-2 -3 -4 -4 -4 -4 -4 -5 -6 -6 -6 -6 -6 -7 -8 -9 -10 -10 -10 -10 -10 -10 -9 -9 -9 -9 -9 -10 -10 -10 -10 -11 -10 -10 -9 -9 -9 -9 -8 -7 -7 -6 -6
-2 -2 -3 -3 -4 -6 -8 -7 -7 -9 -9 -8 -8 -8 -9 -10 -11 -11 -11 -10 -10 -10 -9 -9 -9 -9 -9 -10 -10 -10 -10 -11 -11 -11 -10 -10 -10 -9 -8 -7 -7 -7 -6
-2 -2 -3 -3 -4 -3 -4 -8 -9 -10 -10 -10 -11 -10 -10 -11 -11 -11 -10 -10 -10 -9 -8 -9 -9 -9 -9 -9 -10 -10 -10 -11 -12 -11 -11 -11 -11 -10 -9 -8 -8 -7 -7
-2 -4 -5 -4 -4 -5 -5 -5 -6 -10 -10 -11 -11 -11 -11 -11 -11 -11 -10 -10 -9 -9 -9 -9 -10 -10 -10 -10 -10 -11 -11 -12 -12 -12 -12 -12 -12 -11 -10 -9 -9 -8 -8
-6 -6 -5 -6 -6 -6 -7 -7 -7 -7 -7 -8 -10 -11 -11 -11 -11 -11 -11 -10 -9 -9 -10 -10 -10 -10 -11 -11 -11 -12 -12 -12 -13 -13 -13 -13 -13 -12 -11 -11 -10 -10 -9
-7 -7 -7 -7 -7 -7 -7 -7 -7 -7 -7 -7 -8 -10 -11 -11 -10 -11 -11 -11 -11 -11 -11 -11 -11 -12 -12 -12 -13 -13 -13 -13 -13 -13 -14 -14 -14 -13 -12 -12 -11 -11 -10
-8 -8 -7 -7 -7 -7 -7 -7 -7 -8 -8 -8 -9 -12 -12 -10 -10 -11 -11 -12 -12 -12 -13 -13 -13 -13 -14 -14 -14 -14 -14 -14 -14 -14 -14 -15 -15 -14 -13 -13 -13 -12 -11
-7 -8 -8 -7 -7 -8 -8 -8 -9 -9 -9 -9 -10 -14 -14 -12 -12 -12 -12 -14 -14 -14 -14 -15 -15 -15 -15 -16 -16 -16 -16 -16 -15 -16 -16 -16 -15 -15 -14 -14 -13 -13 -12
-7 -7 -8 -8 -9 -9 -9 -9 -10 -10 -11 -11 -11 -12 -14 -13 -13 -14 -14 -15 -16 -16 -16 -17 -17 -17 -17 -18 -18 -18 -17 -17 -17 -18 -17 -17 -16 -15 -15 -15 -14 -14 -13
-8 -8 -8 -9 -10 -11 -11 -11 -12 -12 -12 -12 -12 -13 -13 -14 -15 -15 -16 -17 -18 -18 -18 -19 -19 -19 -19 -20 -20 -19 -19 -19 -20 -20 -19 -18 -17 -16 -16 -15 -15 -15 -15
-9 -9 -9 -10 -11 -11 -11 -12 -12 -14 -14 -13 -13 -14 -15 -15 -16 -16 -17 -18 -19 -20 -20 -20 -20 -20 -21 -21 -21 -20 -21 -22 -22 -21 -20 -19 -18 -17 -16 -16 -16 -16 -15
-10 -10 -10 -11 -12 -12 -12 -13 -13 -13 -14 -14 -15 -15 -16 -16 -17 -18 -18 -19 -21 -21 -21 -21 -21 -21 -22 -22 -21 -23 -23 -23 -22 -22 -21 -20 -18 -17 -17 -17 -17 -16 -16
-11 -11 -12 -12 -12 -12 -13 -13 -14 -14 -15 -15 -16 -16 -17 -17 -18 -19 -19 -21 -22 -22 -21 -22 -22 -22 -22 -22 -22 -23 -24 -23 -23 -22 -21 -19 -18 -17 -17 -17 -17 -17 -16